ECMWFFLT1_prec_pwat_096.txt.gz
Precipitable_Water
1.67 1.55 1.44 1.37 1.33 1.31 1.33 1.37 1.39 1.37 1.37 1.37 1.35 1.34 1.36 1.41 1.42 1.42 1.38 1.36 1.31 1.32 1.36 1.39 1.40 1.46 1.47 1.50 1.51 1.52 1.53 1.53 1.56 1.59 1.60 1.63 1.66 1.68 1.66 1.71 1.72 1.68 1.72 1.67 1.72 1.75 1.79 1.79 1.76 1.76 1.79 1.82 1.84 1.86 1.80 1.78 1.72 1.76 1.76 1.77 1.73 1.68 1.66
1.63 1.61 1.51 1.42 1.35 1.32 1.34 1.39 1.41 1.41 1.38 1.37 1.36 1.38 1.40 1.42 1.45 1.44 1.40 1.38 1.33 1.32 1.36 1.38 1.40 1.42 1.46 1.49 1.51 1.52 1.49 1.50 1.54 1.55 1.59 1.60 1.63 1.63 1.64 1.65 1.68 1.72 1.73 1.77 1.79 1.79 1.81 1.79 1.76 1.74 1.77 1.77 1.79 1.83 1.85 1.79 1.75 1.75 1.77 1.76 1.72 1.72 1.70
1.56 1.62 1.57 1.49 1.41 1.37 1.36 1.39 1.41 1.40 1.38 1.36 1.37 1.41 1.43 1.45 1.47 1.44 1.43 1.38 1.34 1.34 1.38 1.36 1.36 1.40 1.45 1.50 1.49 1.51 1.51 1.51 1.50 1.51 1.51 1.53 1.56 1.57 1.60 1.62 1.64 1.66 1.72 1.76 1.78 1.80 1.80 1.81 1.76 1.76 1.75 1.74 1.80 1.85 1.85 1.85 1.80 1.79 1.77 1.71 1.66 1.68 1.67
1.48 1.58 1.61 1.58 1.52 1.46 1.43 1.42 1.40 1.40 1.39 1.37 1.39 1.44 1.44 1.46 1.49 1.51 1.50 1.44 1.36 1.34 1.30 1.32 1.34 1.35 1.43 1.47 1.48 1.50 1.51 1.51 1.51 1.51 1.50 1.51 1.52 1.56 1.58 1.58 1.60 1.64 1.65 1.68 1.76 1.75 1.83 1.83 1.80 1.77 1.72 1.72 1.71 1.78 1.84 1.88 1.88 1.82 1.82 1.79 1.73 1.72 1.63
1.47 1.54 1.61 1.63 1.56 1.50 1.47 1.45 1.42 1.41 1.40 1.42 1.46 1.49 1.50 1.52 1.55 1.56 1.55 1.53 1.48 1.39 1.36 1.32 1.33 1.33 1.39 1.47 1.49 1.50 1.50 1.50 1.51 1.51 1.51 1.51 1.54 1.55 1.53 1.54 1.57 1.54 1.60 1.66 1.72 1.73 1.73 1.75 1.81 1.79 1.76 1.71 1.70 1.69 1.70 1.75 1.78 1.79 1.80 1.80 1.77 1.78 1.71
1.45 1.49 1.57 1.65 1.62 1.55 1.51 1.49 1.47 1.45 1.43 1.42 1.42 1.44 1.49 1.55 1.59 1.58 1.59 1.55 1.50 1.48 1.46 1.40 1.34 1.31 1.28 1.34 1.40 1.44 1.49 1.50 1.52 1.53 1.50 1.50 1.52 1.51 1.51 1.51 1.56 1.55 1.56 1.57 1.69 1.70 1.70 1.71 1.75 1.81 1.77 1.78 1.71 1.73 1.71 1.69 1.71 1.74 1.77 1.74 1.72 1.77 1.77
1.46 1.49 1.57 1.67 1.70 1.62 1.56 1.52 1.50 1.51 1.52 1.50 1.52 1.52 1.53 1.56 1.57 1.60 1.63 1.59 1.56 1.48 1.44 1.39 1.35 1.32 1.28 1.30 1.29 1.32 1.36 1.42 1.46 1.47 1.49 1.46 1.50 1.49 1.52 1.54 1.54 1.57 1.59 1.65 1.60 1.66 1.69 1.68 1.70 1.74 1.74 1.78 1.80 1.77 1.74 1.68 1.70 1.70 1.70 1.67 1.66 1.64 1.61
1.41 1.48 1.55 1.62 1.72 1.69 1.63 1.59 1.56 1.57 1.57 1.56 1.56 1.55 1.54 1.58 1.60 1.61 1.59 1.60 1.61 1.59 1.56 1.50 1.45 1.41 1.38 1.35 1.32 1.26 1.27 1.31 1.38 1.43 1.43 1.41 1.43 1.43 1.45 1.50 1.53 1.55 1.58 1.56 1.59 1.57 1.61 1.65 1.69 1.71 1.73 1.74 1.73 1.75 1.77 1.75 1.65 1.66 1.67 1.64 1.64 1.60 1.64
1.36 1.40 1.47 1.57 1.67 1.71 1.70 1.69 1.65 1.64 1.60 1.59 1.57 1.59 1.59 1.57 1.56 1.58 1.65 1.67 1.68 1.62 1.62 1.61 1.60 1.59 1.55 1.48 1.43 1.38 1.34 1.32 1.31 1.33 1.32 1.32 1.35 1.38 1.38 1.42 1.47 1.53 1.50 1.48 1.50 1.58 1.57 1.64 1.66 1.74 1.74 1.72 1.76 1.75 1.77 1.77 1.74 1.69 1.64 1.62 1.58 1.55 1.60
1.38 1.40 1.45 1.57 1.65 1.67 1.66 1.68 1.68 1.68 1.62 1.60 1.60 1.61 1.60 1.60 1.60 1.62 1.67 1.68 1.71 1.68 1.71 1.73 1.76 1.74 1.69 1.63 1.57 1.53 1.49 1.45 1.42 1.38 1.30 1.23 1.27 1.32 1.37 1.40 1.44 1.48 1.43 1.41 1.41 1.49 1.60 1.61 1.69 1.72 1.70 1.67 1.69 1.70 1.73 1.78 1.78 1.75 1.70 1.61 1.56 1.54 1.56
1.44 1.45 1.43 1.49 1.60 1.64 1.70 1.70 1.72 1.72 1.76 1.75 1.71 1.66 1.67 1.66 1.67 1.67 1.71 1.73 1.72 1.74 1.80 1.84 1.89 1.87 1.85 1.82 1.78 1.71 1.61 1.52 1.49 1.47 1.44 1.36 1.32 1.31 1.36 1.39 1.41 1.44 1.44 1.41 1.36 1.39 1.55 1.62 1.63 1.66 1.67 1.65 1.66 1.67 1.67 1.70 1.76 1.76 1.72 1.68 1.65 1.61 1.56
1.43 1.42 1.39 1.36 1.50 1.63 1.64 1.67 1.70 1.75 1.80 1.80 1.77 1.73 1.73 1.79 1.79 1.81 1.84 1.83 1.87 1.83 1.84 1.86 1.90 1.87 1.87 1.84 1.80 1.82 1.76 1.66 1.55 1.50 1.51 1.51 1.44 1.36 1.36 1.39 1.39 1.40 1.42 1.42 1.36 1.39 1.47 1.60 1.61 1.58 1.59 1.61 1.66 1.69 1.70 1.72 1.74 1.75 1.74 1.71 1.68 1.62 1.57
1.48 1.46 1.45 1.46 1.49 1.52 1.60 1.65 1.66 1.72 1.80 1.87 1.90 1.90 1.83 1.85 1.82 1.82 1.81 1.84 1.97 1.94 1.93 1.93 1.92 1.91 1.88 1.88 1.88 1.89 1.87 1.83 1.77 1.72 1.66 1.64 1.63 1.59 1.50 1.43 1.42 1.42 1.41 1.44 1.39 1.36 1.40 1.46 1.49 1.54 1.54 1.55 1.56 1.59 1.67 1.70 1.72 1.74 1.72 1.70 1.69 1.65 1.60
1.56 1.58 1.58 1.56 1.54 1.54 1.56 1.61 1.65 1.70 1.77 1.79 1.85 1.95 2.00 2.00 1.97 1.94 1.92 1.91 1.95 2.01 2.00 2.01 1.97 1.96 1.94 1.88 1.88 1.91 1.95 2.01 2.07 2.01 1.91 1.84 1.80 1.78 1.72 1.62 1.55 1.53 1.54 1.53 1.48 1.42 1.40 1.42 1.45 1.49 1.48 1.46 1.47 1.51 1.60 1.64 1.66 1.69 1.69 1.70 1.69 1.68 1.62
1.49 1.52 1.56 1.55 1.56 1.61 1.65 1.66 1.69 1.75 1.79 1.83 1.85 1.86 1.91 1.94 1.97 2.04 2.07 2.08 2.09 2.10 2.09 2.07 2.02 2.02 2.00 1.97 1.94 1.94 1.98 2.01 2.04 2.11 2.09 2.00 1.94 1.88 1.84 1.80 1.72 1.67 1.63 1.59 1.54 1.52 1.49 1.44 1.43 1.46 1.49 1.50 1.49 1.49 1.56 1.59 1.61 1.64 1.67 1.66 1.66 1.65 1.64
1.45 1.49 1.52 1.53 1.60 1.63 1.68 1.69 1.66 1.67 1.73 1.80 1.87 1.92 1.95 1.99 2.01 2.02 2.03 2.06 2.08 2.11 2.15 2.16 2.10 2.05 2.03 1.98 1.96 1.99 2.02 2.04 2.04 2.07 2.10 2.07 2.00 1.95 1.94 1.93 1.92 1.84 1.72 1.65 1.63 1.58 1.55 1.52 1.51 1.51 1.49 1.49 1.49 1.46 1.46 1.50 1.56 1.62 1.62 1.66 1.67 1.70 1.69
1.43 1.46 1.49 1.56 1.59 1.55 1.62 1.61 1.60 1.63 1.69 1.76 1.82 1.85 1.89 1.99 2.06 2.08 2.10 2.12 2.15 2.16 2.19 2.18 2.13 2.09 2.04 2.01 2.05 2.08 2.09 2.07 2.06 2.09 2.07 2.07 2.07 2.06 2.03 2.03 2.03 1.99 1.91 1.77 1.69 1.67 1.64 1.55 1.50 1.48 1.49 1.47 1.46 1.43 1.41 1.46 1.57 1.58 1.55 1.53 1.53 1.53 1.55
1.42 1.45 1.50 1.49 1.56 1.55 1.56 1.58 1.61 1.62 1.64 1.68 1.74 1.81 1.83 1.85 1.93 1.99 1.99 2.03 2.04 2.09 2.15 2.14 2.12 2.11 2.10 2.11 2.13 2.15 2.12 2.11 2.11 2.11 2.11 2.11 2.10 2.10 2.11 2.11 2.09 2.07 2.05 1.96 1.82 1.73 1.69 1.64 1.59 1.57 1.59 1.57 1.52 1.48 1.48 1.55 1.55 1.56 1.52 1.51 1.50 1.49 1.50
1.43 1.44 1.47 1.48 1.51 1.52 1.54 1.56 1.57 1.59 1.60 1.62 1.67 1.73 1.80 1.89 1.87 1.88 1.94 1.99 2.05 2.11 2.11 2.10 2.09 2.10 2.11 2.15 2.15 2.16 2.18 2.16 2.14 2.13 2.14 2.15 2.16 2.16 2.16 2.15 2.11 2.09 2.08 2.02 1.98 1.90 1.78 1.74 1.71 1.68 1.67 1.67 1.63 1.58 1.60 1.60 1.54 1.54 1.53 1.51 1.51 1.50 1.49
1.42 1.44 1.45 1.47 1.47 1.45 1.47 1.51 1.53 1.55 1.58 1.62 1.68 1.72 1.76 1.80 1.84 1.90 1.97 2.01 2.05 2.06 2.07 2.07 2.07 2.10 2.10 2.14 2.15 2.18 2.17 2.16 2.14 2.12 2.12 2.13 2.14 2.15 2.15 2.14 2.12 2.16 2.16 2.10 2.05 2.00 1.95 1.88 1.82 1.80 1.78 1.78 1.77 1.73 1.72 1.57 1.56 1.57 1.56 1.54 1.53 1.52 1.49
1.36 1.38 1.37 1.38 1.40 1.41 1.44 1.47 1.49 1.50 1.53 1.58 1.63 1.68 1.70 1.69 1.75 1.83 1.89 1.93 1.93 1.96 1.98 1.99 1.99 1.99 2.03 2.02 2.03 2.07 2.09 2.08 2.11 2.10 2.10 2.11 2.12 2.12 2.12 2.11 2.13 2.14 2.16 2.14 2.11 2.07 2.04 2.01 1.97 1.94 1.91 1.87 1.86 1.81 1.73 1.57 1.59 1.60 1.61 1.60 1.59 1.58 1.54
1.32 1.34 1.33 1.36 1.41 1.41 1.42 1.43 1.44 1.45 1.49 1.56 1.59 1.60 1.63 1.65 1.71 1.73 1.79 1.87 1.86 1.88 1.90 1.91 1.92 1.92 1.93 1.93 1.96 1.98 2.00 2.00 2.04 2.04 2.05 2.06 2.11 2.10 2.09 2.11 2.12 2.12 2.16 2.14 2.13 2.13 2.10 2.08 2.07 2.00 1.95 1.93 1.90 1.87 1.82 1.82 1.71 1.67 1.66 1.66 1.65 1.65 1.63
1.35 1.34 1.35 1.40 1.43 1.43 1.46 1.46 1.43 1.47 1.51 1.54 1.57 1.57 1.57 1.64 1.69 1.72 1.77 1.74 1.80 1.78 1.79 1.81 1.81 1.82 1.84 1.84 1.87 1.89 1.92 1.94 1.93 1.94 1.94 1.95 1.96 1.97 2.01 2.04 2.08 2.15 2.21 2.14 2.09 2.04 2.01 2.00 2.00 2.01 1.99 1.97 1.97 1.98 1.91 1.83 1.83 1.81 1.79 1.77 1.77 1.77 1.82
1.29 1.32 1.34 1.37 1.43 1.45 1.45 1.45 1.47 1.48 1.47 1.49 1.50 1.53 1.56 1.59 1.62 1.65 1.65 1.69 1.72 1.72 1.73 1.74 1.72 1.75 1.75 1.75 1.78 1.79 1.84 1.88 1.91 1.89 1.88 1.92 1.92 1.93 1.98 2.03 2.09 2.09 2.19 2.15 2.05 2.01 2.03 2.03 2.01 2.03 2.05 2.03 2.05 2.09 1.98 1.93 1.91 1.90 1.92 1.93 1.94 1.94 1.98
1.22 1.27 1.32 1.36 1.38 1.37 1.38 1.39 1.40 1.40 1.41 1.41 1.41 1.46 1.47 1.50 1.54 1.56 1.56 1.59 1.59 1.60 1.61 1.63 1.68 1.71 1.69 1.67 1.67 1.73 1.75 1.76 1.80 1.79 1.80 1.79 1.87 1.89 1.93 1.99 2.10 2.16 2.14 2.08 2.07 2.07 2.10 2.11 2.08 2.07 2.08 2.09 2.08 2.07 2.02 1.98 1.97 1.94 1.95 1.96 1.98 2.00 2.05
1.16 1.20 1.24 1.29 1.35 1.36 1.36 1.39 1.34 1.30 1.26 1.28 1.31 1.35 1.33 1.29 1.27 1.31 1.33 1.37 1.44 1.51 1.51 1.52 1.59 1.64 1.67 1.66 1.65 1.71 1.72 1.68 1.69 1.70 1.68 1.70 1.72 1.79 1.82 1.81 1.83 1.92 1.99 2.03 2.08 2.06 2.04 2.07 2.07 2.01 2.02 2.05 2.06 2.04 2.01 1.96 1.92 1.90 1.87 1.90 1.94 1.98 2.01
1.17 1.22 1.26 1.29 1.31 1.30 1.26 1.23 1.22 1.20 1.19 1.22 1.25 1.26 1.25 1.21 1.16 1.16 1.24 1.26 1.24 1.25 1.31 1.37 1.46 1.53 1.53 1.52 1.49 1.52 1.62 1.66 1.57 1.54 1.58 1.58 1.61 1.64 1.68 1.75 1.70 1.71 1.80 1.83 1.89 1.93 1.94 1.95 1.98 1.95 1.92 1.96 1.98 1.98 1.99 1.95 1.88 1.86 1.85 1.83 1.83 1.88 1.93
1.19 1.20 1.26 1.28 1.31 1.33 1.27 1.21 1.17 1.13 1.14 1.19 1.19 1.22 1.21 1.14 1.06 1.04 1.04 1.07 1.10 1.17 1.22 1.20 1.24 1.35 1.39 1.42 1.42 1.35 1.33 1.43 1.48 1.48 1.45 1.52 1.49 1.45 1.46 1.58 1.59 1.59 1.65 1.74 1.76 1.67 1.62 1.73 1.77 1.75 1.75 1.80 1.83 1.85 1.83 1.86 1.85 1.83 1.79 1.78 1.78 1.79 1.81
1.12 1.16 1.21 1.28 1.27 1.27 1.26 1.19 1.15 1.11 1.09 1.11 1.11 1.12 1.12 1.08 1.02 0.98 0.95 0.93 1.00 1.07 1.11 1.15 1.15 1.13 1.18 1.23 1.28 1.33 1.34 1.34 1.30 1.33 1.35 1.36 1.40 1.37 1.36 1.40 1.38 1.41 1.45 1.47 1.46 1.49 1.43 1.47 1.56 1.56 1.55 1.56 1.58 1.62 1.65 1.65 1.65 1.68 1.69 1.70 1.71 1.71 1.71
1.07 1.10 1.13 1.19 1.22 1.23 1.19 1.17 1.14 1.10 1.08 1.06 1.06 1.05 1.03 0.98 0.90 0.86 0.83 0.84 0.94 0.98 1.01 1.05 1.07 1.07 1.07 1.07 1.13 1.17 1.27 1.24 1.19 1.27 1.27 1.30 1.31 1.31 1.30 1.25 1.24 1.27 1.31 1.36 1.32 1.31 1.33 1.34 1.38 1.37 1.33 1.31 1.34 1.41 1.49 1.51 1.46 1.42 1.43 1.44 1.45 1.48 1.52
1.04 1.03 1.07 1.09 1.08 1.14 1.15 1.10 1.06 1.04 1.00 0.99 0.98 0.98 0.97 0.95 0.89 0.87 0.83 0.89 0.95 0.93 0.92 0.93 0.95 0.96 0.95 0.95 0.97 0.98 1.00 1.04 1.13 1.10 1.09 1.18 1.18 1.15 1.16 1.21 1.22 1.16 1.22 1.23 1.25 1.22 1.18 1.18 1.20 1.21 1.20 1.19 1.18 1.22 1.29 1.35 1.38 1.37 1.33 1.32 1.31 1.31 1.32
1.03 1.03 1.03 1.03 1.03 1.02 1.01 1.03 1.00 0.97 0.92 0.93 0.94 0.94 0.97 0.97 0.94 0.88 0.89 0.93 0.93 0.93 0.94 0.93 0.91 0.88 0.88 0.88 0.88 0.88 0.90 0.91 0.92 0.94 0.93 0.95 1.01 1.05 1.09 1.05 1.05 1.05 1.06 1.12 1.10 1.10 1.10 1.09 1.09 1.09 1.10 1.09 1.10 1.10 1.13 1.17 1.21 1.22 1.22 1.23 1.22 1.21 1.18
0.99 0.98 0.96 0.95 0.97 0.96 0.93 0.93 0.92 0.93 0.91 0.93 0.98 0.99 0.99 0.99 0.97 0.94 0.93 0.92 0.92 0.92 0.91 0.91 0.90 0.89 0.90 0.90 0.91 0.88 0.88 0.88 0.88 0.89 0.89 0.87 0.88 0.87 0.92 0.96 0.98 0.96 0.97 0.97 0.97 0.96 0.96 0.97 0.97 0.98 0.97 0.97 0.97 0.98 1.00 1.02 1.03 1.02 1.00 0.99 0.97 0.97 0.98
0.98 0.98 0.99 0.99 0.97 0.96 0.91 0.89 0.89 0.89 0.94 0.96 1.00 1.00 0.96 0.92 0.89 0.87 0.87 0.85 0.88 0.88 0.88 0.88 0.88 0.88 0.87 0.89 0.90 0.90 0.89 0.83 0.76 0.82 0.84 0.83 0.85 0.86 0.86 0.87 0.87 0.86 0.85 0.86 0.84 0.84 0.82 0.83 0.85 0.85 0.85 0.85 0.86 0.86 0.88 0.88 0.91 0.86 0.83 0.83 0.81 0.82 0.82
1.01 1.02 1.03 0.99 0.99 0.98 0.94 0.91 0.93 0.95 0.96 0.97 1.02 0.99 0.92 0.86 0.85 0.87 0.84 0.83 0.80 0.76 0.73 0.71 0.73 0.78 0.80 0.83 0.84 0.82 0.84 0.85 0.83 0.81 0.80 0.81 0.83 0.81 0.80 0.82 0.87 0.88 0.88 0.83 0.80 0.75 0.75 0.77 0.77 0.76 0.76 0.77 0.78 0.75 0.76 0.81 0.83 0.77 0.75 0.73 0.71 0.68 0.66
1.02 1.02 1.00 1.01 0.98 0.98 0.95 0.93 0.91 0.92 0.95 0.98 1.02 0.99 0.94 0.90 0.89 0.89 0.89 0.88 0.84 0.80 0.73 0.68 0.68 0.70 0.72 0.77 0.79 0.79 0.79 0.82 0.84 0.81 0.81 0.79 0.80 0.83 0.82 0.76 0.74 0.74 0.85 0.80 0.72 0.71 0.71 0.70 0.69 0.67 0.70 0.77 0.80 0.74 0.73 0.73 0.71 0.72 0.70 0.68 0.67 0.66 0.65
0.97 0.97 0.98 0.99 0.98 0.96 0.93 0.92 0.92 0.92 0.93 0.97 0.99 0.96 0.93 0.89 0.88 0.87 0.87 0.87 0.88 0.85 0.80 0.75 0.69 0.66 0.66 0.67 0.66 0.65 0.69 0.73 0.77 0.79 0.80 0.79 0.79 0.80 0.79 0.82 0.79 0.72 0.73 0.71 0.71 0.69 0.71 0.69 0.69 0.68 0.67 0.66 0.72 0.73 0.70 0.69 0.68 0.66 0.65 0.64 0.63 0.62 0.62
0.98 0.97 0.97 0.98 0.97 0.94 0.92 0.91 0.93 0.94 0.94 0.96 0.96 0.94 0.93 0.90 0.89 0.89 0.88 0.88 0.88 0.87 0.83 0.80 0.76 0.69 0.66 0.66 0.64 0.61 0.63 0.66 0.67 0.69 0.71 0.75 0.76 0.80 0.76 0.76 0.79 0.83 0.78 0.73 0.70 0.74 0.74 0.74 0.73 0.71 0.67 0.67 0.67 0.69 0.74 0.72 0.67 0.66 0.64 0.63 0.61 0.60 0.59

ECMWFFLT1_prec_pwat_102.txt.gz
Precipitable_Water
1.58 1.53 1.45 1.42 1.33 1.27 1.24 1.26 1.28 1.31 1.33 1.37 1.36 1.36 1.39 1.44 1.49 1.57 1.61 1.53 1.43 1.41 1.45 1.48 1.49 1.48 1.42 1.44 1.59 1.61 1.67 1.65 1.66 1.64 1.62 1.68 1.74 1.72 1.68 1.74 1.71 1.69 1.75 1.69 1.70 1.74 1.78 1.84 1.80 1.78 1.83 1.73 1.72 1.68 1.63 1.62 1.62 1.66 1.65 1.65 1.55 1.61 1.60
1.50 1.52 1.52 1.47 1.41 1.39 1.31 1.31 1.31 1.31 1.32 1.37 1.39 1.36 1.38 1.41 1.50 1.52 1.56 1.50 1.44 1.42 1.41 1.44 1.48 1.52 1.47 1.50 1.51 1.56 1.69 1.70 1.65 1.66 1.71 1.74 1.76 1.75 1.79 1.70 1.69 1.73 1.73 1.77 1.80 1.89 1.80 1.80 1.78 1.78 1.82 1.79 1.76 1.71 1.71 1.68 1.65 1.67 1.73 1.64 1.59 1.61 1.58
1.50 1.49 1.50 1.55 1.48 1.46 1.44 1.42 1.38 1.35 1.34 1.37 1.37 1.34 1.35 1.38 1.42 1.48 1.51 1.50 1.45 1.41 1.42 1.41 1.44 1.48 1.53 1.57 1.52 1.49 1.57 1.64 1.60 1.59 1.63 1.67 1.70 1.80 1.74 1.74 1.71 1.77 1.81 1.74 1.83 1.87 1.89 1.75 1.85 1.81 1.80 1.81 1.77 1.80 1.68 1.72 1.69 1.69 1.75 1.74 1.66 1.67 1.57
1.47 1.51 1.55 1.60 1.57 1.54 1.53 1.51 1.46 1.43 1.39 1.40 1.39 1.35 1.36 1.40 1.40 1.48 1.49 1.48 1.41 1.40 1.39 1.39 1.39 1.44 1.51 1.55 1.55 1.56 1.52 1.58 1.60 1.65 1.61 1.64 1.68 1.72 1.69 1.69 1.71 1.70 1.70 1.66 1.82 1.74 1.81 1.84 1.78 1.82 1.78 1.75 1.80 1.85 1.80 1.76 1.73 1.71 1.72 1.73 1.62 1.66 1.66
1.52 1.57 1.60 1.63 1.61 1.62 1.58 1.56 1.53 1.50 1.48 1.48 1.46 1.41 1.40 1.44 1.45 1.48 1.48 1.50 1.47 1.40 1.42 1.40 1.39 1.43 1.52 1.56 1.58 1.62 1.53 1.52 1.55 1.61 1.61 1.67 1.66 1.67 1.67 1.73 1.68 1.60 1.72 1.74 1.75 1.74 1.77 1.80 1.88 1.82 1.71 1.69 1.76 1.78 1.78 1.70 1.69 1.71 1.75 1.73 1.65 1.71 1.65
1.51 1.56 1.60 1.70 1.65 1.63 1.64 1.65 1.61 1.57 1.56 1.55 1.49 1.48 1.48 1.47 1.47 1.45 1.46 1.45 1.44 1.45 1.44 1.44 1.40 1.43 1.43 1.51 1.53 1.53 1.54 1.52 1.53 1.56 1.55 1.57 1.55 1.59 1.67 1.69 1.62 1.63 1.65 1.71 1.73 1.70 1.71 1.73 1.75 1.79 1.75 1.73 1.68 1.75 1.73 1.81 1.72 1.67 1.69 1.67 1.63 1.63 1.69
1.52 1.55 1.54 1.63 1.71 1.69 1.74 1.67 1.64 1.66 1.65 1.68 1.64 1.58 1.55 1.52 1.48 1.50 1.53 1.53 1.46 1.38 1.37 1.37 1.40 1.41 1.44 1.50 1.47 1.52 1.53 1.51 1.52 1.51 1.52 1.53 1.56 1.53 1.60 1.67 1.63 1.62 1.56 1.67 1.67 1.72 1.70 1.69 1.61 1.71 1.75 1.78 1.77 1.74 1.81 1.78 1.76 1.77 1.78 1.68 1.59 1.62 1.70
1.55 1.55 1.60 1.63 1.71 1.78 1.79 1.76 1.72 1.73 1.73 1.75 1.78 1.67 1.56 1.57 1.57 1.63 1.60 1.61 1.51 1.47 1.44 1.38 1.38 1.36 1.41 1.46 1.46 1.48 1.58 1.62 1.56 1.53 1.48 1.45 1.50 1.51 1.56 1.63 1.56 1.56 1.60 1.57 1.57 1.64 1.63 1.70 1.66 1.59 1.74 1.68 1.74 1.73 1.73 1.82 1.82 1.69 1.74 1.70 1.66 1.61 1.64
1.56 1.61 1.67 1.72 1.75 1.86 1.81 1.85 1.91 1.82 1.83 1.87 1.76 1.71 1.64 1.63 1.71 1.71 1.66 1.71 1.63 1.53 1.50 1.49 1.47 1.46 1.43 1.42 1.45 1.49 1.59 1.58 1.57 1.59 1.52 1.42 1.39 1.42 1.46 1.51 1.56 1.56 1.52 1.51 1.56 1.61 1.57 1.69 1.72 1.64 1.65 1.64 1.68 1.68 1.71 1.75 1.77 1.77 1.70 1.73 1.71 1.68 1.66
1.50 1.63 1.71 1.79 1.80 1.86 1.80 1.83 1.88 1.86 1.82 1.83 1.86 1.68 1.79 1.93 1.90 1.81 1.73 1.72 1.71 1.64 1.70 1.66 1.61 1.54 1.48 1.42 1.42 1.45 1.50 1.53 1.55 1.57 1.52 1.51 1.49 1.40 1.41 1.43 1.49 1.59 1.54 1.53 1.54 1.58 1.67 1.61 1.59 1.62 1.62 1.61 1.60 1.66 1.64 1.69 1.73 1.73 1.71 1.68 1.69 1.67 1.71
1.50 1.58 1.64 1.77 1.83 1.83 1.83 1.81 1.85 1.85 1.87 1.87 1.79 1.67 1.61 1.79 1.91 1.87 1.85 1.72 1.77 1.69 1.83 1.95 1.70 1.60 1.53 1.46 1.42 1.40 1.40 1.41 1.44 1.45 1.47 1.54 1.56 1.46 1.46 1.44 1.43 1.45 1.48 1.52 1.52 1.52 1.56 1.59 1.62 1.63 1.65 1.60 1.55 1.56 1.68 1.65 1.67 1.64 1.64 1.72 1.77 1.76 1.71
1.52 1.58 1.57 1.64 1.73 1.72 1.66 1.74 1.82 1.80 1.84 1.84 1.79 1.77 1.76 1.79 1.90 1.91 1.81 1.69 1.70 1.72 1.89 2.05 1.84 1.66 1.60 1.52 1.44 1.42 1.39 1.39 1.38 1.34 1.35 1.38 1.41 1.43 1.43 1.44 1.44 1.46 1.48 1.47 1.49 1.53 1.52 1.50 1.56 1.58 1.63 1.67 1.63 1.59 1.59 1.61 1.57 1.59 1.59 1.64 1.69 1.77 1.75
1.56 1.56 1.57 1.58 1.67 1.73 1.72 1.74 1.80 1.79 1.85 1.82 1.79 1.71 1.64 1.68 1.76 1.74 1.66 1.59 1.74 1.87 1.93 1.86 1.88 1.82 1.70 1.61 1.54 1.49 1.45 1.42 1.40 1.39 1.37 1.37 1.37 1.37 1.33 1.35 1.40 1.44 1.47 1.53 1.52 1.53 1.54 1.49 1.51 1.59 1.63 1.72 1.68 1.61 1.60 1.62 1.61 1.58 1.60 1.60 1.63 1.68 1.73
1.62 1.63 1.62 1.63 1.61 1.65 1.61 1.66 1.78 1.82 1.85 1.85 1.82 1.78 1.71 1.71 1.74 1.76 1.73 1.73 1.85 1.92 1.87 1.84 1.86 1.84 1.73 1.65 1.66 1.63 1.58 1.55 1.53 1.52 1.53 1.50 1.45 1.43 1.39 1.37 1.39 1.43 1.49 1.52 1.55 1.55 1.53 1.53 1.49 1.54 1.59 1.68 1.72 1.68 1.65 1.67 1.68 1.66 1.63 1.66 1.66 1.66 1.70
1.54 1.56 1.59 1.60 1.59 1.59 1.62 1.64 1.68 1.78 1.78 1.92 1.94 1.86 1.82 1.82 1.82 1.84 1.81 1.75 1.76 1.79 1.80 1.82 1.71 1.72 1.70 1.65 1.60 1.62 1.64 1.65 1.71 1.70 1.65 1.61 1.59 1.55 1.52 1.45 1.41 1.41 1.44 1.48 1.51 1.54 1.58 1.58 1.55 1.51 1.55 1.65 1.71 1.71 1.69 1.70 1.74 1.73 1.68 1.68 1.66 1.65 1.68
1.45 1.46 1.54 1.56 1.62 1.63 1.63 1.66 1.67 1.68 1.71 1.77 1.77 1.78 1.82 1.87 1.94 1.92 1.92 1.87 1.84 1.79 1.88 1.88 1.82 1.77 1.76 1.73 1.72 1.72 1.74 1.73 1.75 1.72 1.71 1.70 1.70 1.72 1.71 1.68 1.64 1.56 1.54 1.57 1.59 1.59 1.58 1.62 1.63 1.60 1.58 1.60 1.65 1.67 1.71 1.65 1.66 1.65 1.64 1.62 1.74 1.76 1.71
1.38 1.48 1.51 1.56 1.55 1.56 1.62 1.64 1.66 1.66 1.66 1.67 1.70 1.74 1.78 1.84 1.93 2.00 1.98 1.98 1.92 1.88 1.96 1.98 1.93 1.90 1.86 1.84 1.87 1.87 1.85 1.82 1.81 1.83 1.82 1.88 1.91 1.95 1.96 1.96 1.94 1.89 1.82 1.78 1.75 1.70 1.69 1.72 1.68 1.72 1.76 1.66 1.58 1.65 1.78 1.81 1.71 1.62 1.60 1.62 1.65 1.66 1.71
1.46 1.48 1.51 1.62 1.53 1.59 1.58 1.59 1.64 1.62 1.62 1.64 1.67 1.75 1.82 1.86 1.88 1.87 1.85 1.90 1.93 1.97 1.96 1.93 1.91 1.94 1.95 1.95 1.95 1.94 1.93 1.92 1.91 1.88 1.86 1.89 1.95 2.01 2.06 2.08 2.07 2.04 2.01 1.98 1.97 1.98 1.95 1.86 1.84 1.90 1.90 1.84 1.82 1.84 1.92 1.93 1.95 1.76 1.66 1.65 1.63 1.65 1.68
1.42 1.44 1.48 1.54 1.59 1.60 1.61 1.65 1.66 1.63 1.61 1.64 1.65 1.71 1.81 1.87 1.86 1.84 1.88 1.92 1.97 1.99 1.93 1.85 1.82 1.80 1.80 1.92 1.98 2.01 2.01 2.03 2.03 1.99 1.99 1.96 1.98 2.02 2.02 2.01 1.99 2.00 2.03 2.03 2.06 2.09 2.04 1.99 1.98 2.02 1.99 1.92 1.82 1.85 1.95 2.00 1.97 1.91 1.78 1.71 1.63 1.60 1.61
1.43 1.52 1.56 1.59 1.61 1.61 1.61 1.60 1.60 1.62 1.60 1.62 1.69 1.72 1.72 1.72 1.69 1.76 1.85 1.88 1.91 1.90 1.89 1.88 1.86 1.88 1.89 1.89 1.94 2.02 2.03 2.01 2.03 2.02 2.02 1.99 2.00 2.03 2.03 2.01 2.01 2.03 2.04 2.05 2.07 2.07 2.07 2.07 2.05 2.07 2.02 1.96 1.88 1.78 1.84 2.00 2.08 2.00 1.87 1.77 1.72 1.67 1.63
1.28 1.42 1.44 1.53 1.55 1.58 1.59 1.58 1.59 1.60 1.60 1.61 1.62 1.63 1.65 1.65 1.69 1.73 1.77 1.81 1.83 1.86 1.86 1.89 1.91 1.94 2.00 2.03 2.04 2.06 2.09 2.08 2.07 2.07 2.11 2.14 2.11 2.11 2.10 2.10 2.09 2.08 2.09 2.10 2.09 2.07 2.07 2.08 2.09 2.09 2.08 2.06 2.03 1.96 1.89 1.94 2.06 2.05 1.93 1.85 1.79 1.76 1.72
1.48 1.41 1.42 1.49 1.51 1.54 1.55 1.56 1.59 1.61 1.62 1.66 1.63 1.62 1.63 1.62 1.68 1.69 1.70 1.75 1.74 1.77 1.83 1.87 1.89 1.88 1.93 1.97 2.02 2.04 2.07 2.09 2.11 2.10 2.11 2.15 2.15 2.14 2.12 2.12 2.12 2.10 2.14 2.16 2.18 2.20 2.22 2.20 2.16 2.06 2.03 2.07 2.07 2.04 2.00 1.95 1.99 2.05 2.03 1.99 1.90 1.85 1.84
1.53 1.51 1.48 1.50 1.52 1.51 1.55 1.59 1.61 1.65 1.68 1.68 1.67 1.64 1.64 1.69 1.74 1.74 1.73 1.71 1.73 1.74 1.75 1.78 1.81 1.83 1.86 1.92 1.97 2.01 2.04 2.05 2.03 2.03 2.04 2.06 2.07 2.08 2.11 2.11 2.12 2.13 2.18 2.16 2.17 2.14 2.12 2.12 2.15 2.16 2.10 2.07 2.09 2.10 2.02 2.02 2.03 2.04 2.06 2.03 1.96 1.87 1.86
1.46 1.47 1.45 1.48 1.57 1.59 1.58 1.56 1.59 1.65 1.69 1.69 1.70 1.68 1.69 1.70 1.69 1.67 1.64 1.63 1.64 1.65 1.66 1.67 1.68 1.73 1.78 1.83 1.90 1.94 1.98 2.02 2.03 2.02 2.00 2.00 1.98 1.98 2.03 2.10 2.11 2.12 2.17 2.11 2.10 2.11 2.17 2.19 2.18 2.17 2.17 2.18 2.15 2.15 2.10 2.04 1.99 1.98 2.00 2.03 2.01 1.93 1.83
1.41 1.42 1.44 1.46 1.44 1.43 1.50 1.56 1.59 1.59 1.61 1.62 1.61 1.63 1.62 1.62 1.59 1.55 1.52 1.55 1.57 1.58 1.56 1.56 1.59 1.63 1.69 1.75 1.83 1.88 1.91 1.94 1.99 1.99 1.95 1.92 1.91 1.94 2.00 2.05 2.09 2.13 2.13 2.10 2.13 2.14 2.17 2.20 2.14 2.13 2.15 2.17 2.16 2.19 2.15 2.06 1.99 1.96 1.96 1.97 1.96 1.94 1.91
1.33 1.33 1.32 1.34 1.38 1.41 1.43 1.47 1.50 1.51 1.51 1.49 1.49 1.50 1.49 1.49 1.46 1.42 1.40 1.42 1.46 1.46 1.47 1.50 1.52 1.58 1.65 1.71 1.79 1.87 1.89 1.90 1.88 1.89 1.87 1.87 1.90 1.96 1.94 2.02 2.09 2.10 2.10 2.10 2.10 2.08 2.10 2.12 2.16 2.13 2.13 2.18 2.14 2.11 2.09 2.03 2.00 1.98 1.94 1.91 1.91 1.95 1.99
1.37 1.39 1.38 1.38 1.34 1.36 1.36 1.41 1.39 1.36 1.39 1.40 1.44 1.45 1.43 1.38 1.31 1.24 1.23 1.24 1.28 1.31 1.39 1.48 1.53 1.57 1.60 1.64 1.67 1.69 1.72 1.77 1.83 1.85 1.87 1.87 1.84 1.87 1.90 1.95 1.98 2.00 2.01 2.01 2.01 2.02 2.03 2.13 2.31 2.33 2.21 2.10 2.12 2.12 2.10 2.06 2.01 1.99 1.93 1.87 1.87 1.93 1.95
1.29 1.29 1.30 1.33 1.37 1.32 1.25 1.22 1.23 1.28 1.32 1.37 1.33 1.28 1.25 1.22 1.20 1.16 1.09 1.08 1.14 1.27 1.38 1.42 1.45 1.47 1.45 1.43 1.45 1.49 1.58 1.64 1.73 1.80 1.82 1.83 1.82 1.80 1.77 1.82 1.85 1.89 1.88 1.83 1.86 1.90 1.94 1.96 2.13 2.20 2.10 2.06 2.06 2.02 1.96 2.00 1.97 1.92 1.88 1.85 1.86 1.86 1.87
1.16 1.16 1.15 1.16 1.16 1.22 1.23 1.19 1.17 1.19 1.22 1.27 1.26 1.20 1.16 1.13 1.12 1.16 1.16 1.11 1.10 1.11 1.16 1.24 1.32 1.39 1.42 1.41 1.40 1.42 1.46 1.52 1.52 1.53 1.62 1.73 1.79 1.74 1.74 1.74 1.72 1.74 1.78 1.73 1.66 1.75 1.80 1.83 1.91 1.95 1.97 1.93 1.92 1.88 1.85 1.86 1.84 1.84 1.84 1.84 1.83 1.82 1.79
1.17 1.16 1.16 1.15 1.16 1.17 1.19 1.18 1.16 1.13 1.17 1.17 1.13 1.14 1.15 1.13 1.09 1.08 1.06 1.06 1.11 1.09 1.08 1.10 1.12 1.12 1.17 1.29 1.35 1.40 1.41 1.40 1.40 1.43 1.41 1.48 1.53 1.52 1.55 1.65 1.70 1.72 1.70 1.65 1.68 1.70 1.66 1.61 1.69 1.75 1.79 1.81 1.81 1.80 1.78 1.75 1.77 1.80 1.80 1.79 1.79 1.76 1.76
1.12 1.11 1.09 1.09 1.09 1.14 1.14 1.12 1.12 1.11 1.06 1.03 1.00 1.01 1.03 1.02 0.97 0.94 0.94 1.02 1.08 1.07 1.08 1.10 1.11 1.07 1.04 1.06 1.09 1.12 1.24 1.31 1.32 1.32 1.29 1.25 1.27 1.31 1.36 1.41 1.42 1.45 1.51 1.57 1.59 1.55 1.59 1.66 1.64 1.64 1.67 1.74 1.71 1.72 1.73 1.70 1.72 1.75 1.78 1.76 1.75 1.76 1.78
1.16 1.14 1.10 1.08 1.08 1.08 1.09 1.05 1.05 1.05 0.96 0.92 0.91 0.92 0.96 1.00 0.99 0.91 0.91 0.95 0.97 1.01 1.04 1.03 0.99 0.97 0.95 0.95 0.97 1.03 1.06 1.08 1.07 1.06 1.17 1.25 1.21 1.12 1.12 1.14 1.21 1.27 1.37 1.47 1.48 1.50 1.54 1.55 1.57 1.59 1.63 1.61 1.63 1.65 1.65 1.62 1.65 1.64 1.63 1.63 1.63 1.62 1.62
1.16 1.15 1.10 1.08 1.08 1.06 1.01 1.02 1.00 0.92 0.90 0.91 0.99 1.00 0.97 0.94 0.94 0.94 0.94 0.92 0.94 0.98 0.97 0.96 0.94 0.91 0.92 0.91 0.91 0.84 0.85 0.87 0.94 0.99 1.00 1.05 1.15 1.19 1.16 1.18 1.16 1.10 1.11 1.20 1.27 1.34 1.40 1.45 1.53 1.55 1.55 1.62 1.63 1.59 1.58 1.51 1.49 1.43 1.42 1.41 1.38 1.34 1.33
1.12 1.15 1.15 1.13 1.10 1.06 1.03 1.02 0.97 0.94 0.94 0.92 0.94 0.93 0.90 0.89 0.90 0.97 1.01 1.00 0.98 0.95 1.01 1.02 1.04 1.04 0.99 1.01 1.02 0.97 0.93 0.85 0.89 0.96 0.92 0.87 1.00 1.02 1.02 1.03 1.09 1.11 1.14 1.15 1.14 1.17 1.22 1.31 1.34 1.36 1.46 1.49 1.50 1.53 1.48 1.38 1.39 1.36 1.34 1.29 1.23 1.18 1.08
1.10 1.14 1.15 1.10 1.05 1.05 1.01 0.97 0.92 0.92 0.91 0.92 0.95 0.94 0.91 0.91 0.94 0.97 0.96 0.90 0.90 0.91 0.89 0.90 0.96 0.99 1.00 1.01 0.94 0.82 0.95 0.97 0.92 0.93 0.94 0.99 0.94 0.96 0.96 0.96 0.98 0.98 0.94 0.95 0.99 1.04 1.11 1.20 1.22 1.26 1.31 1.35 1.36 1.43 1.38 1.30 1.24 1.23 1.22 1.18 1.13 1.05 0.91
1.08 1.09 1.08 1.05 1.01 1.01 0.97 0.93 0.90 0.88 0.89 0.92 0.96 0.96 0.95 0.92 0.90 0.93 0.92 0.90 0.87 0.90 0.85 0.88 0.92 0.95 0.97 0.97 0.94 0.92 0.93 0.97 0.92 0.84 0.86 0.94 0.98 0.99 0.95 0.88 0.88 0.99 0.95 0.87 0.83 0.79 0.85 0.93 1.00 0.97 1.05 1.11 1.20 1.30 1.21 1.18 1.17 1.16 1.11 1.08 1.01 0.89 0.79
1.03 1.04 1.03 1.02 0.99 0.98 0.93 0.90 0.89 0.88 0.87 0.92 0.95 0.95 0.94 0.93 0.98 0.99 0.97 0.94 0.93 0.92 0.92 0.97 0.95 0.96 0.95 0.87 0.85 0.81 0.85 0.88 0.86 0.82 0.77 0.84 0.87 0.88 0.82 0.80 0.83 0.75 0.71 0.70 0.69 0.66 0.65 0.68 0.70 0.75 0.82 0.90 0.91 0.97 1.03 1.02 0.97 0.91 0.88 0.83 0.78 0.74 0.71
1.07 1.09 1.07 1.05 1.01 1.00 0.96 0.92 0.90 0.87 0.86 0.87 0.90 0.90 0.92 0.95 0.99 1.00 0.97 0.93 0.95 0.92 0.90 0.94 0.94 0.97 0.98 0.97 0.87 0.79 0.81 0.91 0.86 0.82 0.89 0.85 0.75 0.79 0.74 0.80 0.80 0.87 0.94 0.94 0.84 0.74 0.65 0.65 0.65 0.68 0.69 0.75 0.78 0.77 0.75 0.78 0.78 0.76 0.73 0.71 0.69 0.66 0.65

ECMWFFLT1_prec_pwat_105.txt.gz
Precipitable_Water
1.43 1.41 1.38 1.29 1.22 1.16 1.16 1.19 1.22 1.23 1.26 1.31 1.35 1.36 1.43 1.50 1.52 1.56 1.57 1.55 1.47 1.45 1.47 1.44 1.42 1.39 1.44 1.52 1.59 1.62 1.66 1.64 1.72 1.70 1.69 1.71 1.69 1.66 1.60 1.65 1.70 1.63 1.64 1.57 1.60 1.68 1.75 1.86 1.88 1.82 1.78 1.69 1.67 1.68 1.67 1.61 1.61 1.59 1.65 1.67 1.65 1.65 1.63
1.44 1.44 1.44 1.40 1.32 1.27 1.21 1.22 1.25 1.27 1.30 1.33 1.34 1.36 1.42 1.49 1.52 1.53 1.56 1.56 1.50 1.47 1.49 1.47 1.43 1.38 1.38 1.43 1.52 1.60 1.63 1.61 1.64 1.70 1.68 1.68 1.75 1.75 1.71 1.70 1.69 1.66 1.68 1.73 1.74 1.76 1.80 1.80 1.78 1.75 1.79 1.78 1.69 1.73 1.63 1.60 1.57 1.58 1.59 1.57 1.55 1.52 1.51
1.49 1.51 1.51 1.47 1.40 1.35 1.28 1.25 1.27 1.32 1.32 1.34 1.34 1.37 1.40 1.47 1.52 1.53 1.57 1.57 1.53 1.54 1.53 1.48 1.47 1.40 1.38 1.39 1.43 1.50 1.58 1.59 1.59 1.59 1.60 1.63 1.68 1.70 1.72 1.74 1.70 1.72 1.70 1.75 1.80 1.85 1.82 1.77 1.76 1.78 1.78 1.73 1.72 1.70 1.67 1.67 1.65 1.64 1.68 1.68 1.60 1.55 1.54
1.47 1.52 1.56 1.57 1.51 1.45 1.37 1.33 1.31 1.35 1.38 1.38 1.37 1.38 1.44 1.49 1.52 1.58 1.61 1.61 1.54 1.51 1.47 1.47 1.47 1.46 1.40 1.39 1.41 1.44 1.49 1.57 1.58 1.57 1.59 1.67 1.66 1.68 1.70 1.70 1.68 1.69 1.71 1.68 1.73 1.85 1.84 1.83 1.84 1.81 1.80 1.78 1.81 1.79 1.78 1.73 1.75 1.71 1.72 1.72 1.65 1.62 1.61
1.45 1.55 1.58 1.61 1.60 1.54 1.46 1.42 1.40 1.41 1.42 1.43 1.44 1.45 1.48 1.54 1.55 1.59 1.62 1.64 1.57 1.48 1.49 1.49 1.49 1.49 1.46 1.44 1.45 1.45 1.46 1.54 1.59 1.59 1.59 1.62 1.67 1.71 1.70 1.67 1.66 1.65 1.65 1.69 1.71 1.77 1.80 1.83 1.86 1.86 1.80 1.79 1.78 1.77 1.80 1.78 1.75 1.75 1.74 1.74 1.69 1.66 1.67
1.40 1.49 1.55 1.61 1.67 1.70 1.61 1.54 1.51 1.50 1.49 1.47 1.47 1.48 1.51 1.54 1.57 1.56 1.59 1.61 1.59 1.55 1.53 1.51 1.49 1.50 1.47 1.47 1.48 1.47 1.49 1.53 1.57 1.58 1.58 1.61 1.63 1.66 1.67 1.69 1.71 1.70 1.65 1.67 1.73 1.77 1.79 1.76 1.79 1.82 1.78 1.75 1.68 1.74 1.78 1.75 1.75 1.71 1.69 1.72 1.68 1.64 1.66
1.46 1.53 1.61 1.65 1.69 1.72 1.69 1.67 1.73 1.71 1.67 1.60 1.59 1.59 1.56 1.57 1.56 1.55 1.59 1.59 1.60 1.52 1.48 1.45 1.45 1.46 1.48 1.49 1.51 1.54 1.51 1.51 1.53 1.51 1.56 1.58 1.62 1.59 1.59 1.65 1.72 1.67 1.65 1.71 1.71 1.75 1.70 1.68 1.70 1.71 1.77 1.78 1.76 1.75 1.76 1.81 1.83 1.82 1.73 1.71 1.64 1.58 1.65
1.58 1.64 1.68 1.69 1.69 1.73 1.73 1.73 1.77 1.76 1.73 1.81 1.74 1.65 1.69 1.69 1.62 1.58 1.57 1.59 1.59 1.55 1.50 1.46 1.43 1.44 1.46 1.50 1.55 1.55 1.56 1.53 1.52 1.49 1.50 1.49 1.51 1.50 1.53 1.57 1.66 1.69 1.65 1.61 1.67 1.68 1.67 1.69 1.70 1.69 1.71 1.74 1.77 1.81 1.82 1.81 1.84 1.85 1.77 1.75 1.69 1.65 1.64
1.58 1.59 1.60 1.64 1.67 1.73 1.77 1.80 1.82 1.85 1.80 1.85 1.80 1.72 1.76 1.85 1.72 1.65 1.61 1.60 1.60 1.57 1.57 1.56 1.49 1.47 1.46 1.47 1.51 1.54 1.57 1.57 1.54 1.53 1.52 1.49 1.49 1.46 1.48 1.54 1.62 1.68 1.65 1.60 1.64 1.67 1.64 1.66 1.69 1.72 1.68 1.66 1.69 1.71 1.75 1.78 1.79 1.83 1.78 1.74 1.70 1.69 1.68
1.54 1.51 1.58 1.70 1.77 1.78 1.82 1.83 1.82 1.84 1.84 1.84 1.85 1.78 1.83 1.88 1.80 1.71 1.69 1.66 1.63 1.60 1.62 1.57 1.55 1.52 1.50 1.49 1.47 1.51 1.55 1.55 1.59 1.58 1.56 1.49 1.48 1.43 1.42 1.50 1.55 1.61 1.59 1.60 1.60 1.61 1.65 1.67 1.67 1.70 1.70 1.64 1.63 1.65 1.69 1.70 1.73 1.78 1.81 1.76 1.72 1.68 1.67
1.60 1.60 1.60 1.61 1.64 1.68 1.72 1.74 1.75 1.79 1.85 1.81 1.81 1.83 1.86 1.86 1.83 1.79 1.78 1.76 1.70 1.68 1.67 1.64 1.61 1.56 1.54 1.54 1.48 1.47 1.48 1.53 1.60 1.60 1.55 1.50 1.50 1.47 1.45 1.45 1.49 1.53 1.54 1.57 1.58 1.59 1.60 1.68 1.69 1.67 1.67 1.64 1.63 1.65 1.64 1.66 1.70 1.71 1.74 1.76 1.78 1.77 1.75
1.61 1.63 1.62 1.65 1.67 1.64 1.65 1.71 1.77 1.84 1.85 1.85 1.85 1.85 1.86 1.88 1.87 1.87 1.85 1.84 1.81 1.73 1.67 1.65 1.65 1.63 1.60 1.57 1.49 1.48 1.46 1.50 1.55 1.55 1.55 1.54 1.53 1.52 1.54 1.54 1.49 1.48 1.48 1.52 1.55 1.55 1.57 1.60 1.59 1.56 1.59 1.63 1.66 1.66 1.65 1.67 1.70 1.71 1.69 1.67 1.69 1.75 1.79
1.68 1.66 1.65 1.67 1.70 1.72 1.73 1.76 1.79 1.84 1.86 1.88 1.90 1.92 1.94 1.95 1.92 1.89 1.85 1.87 1.90 1.84 1.74 1.72 1.68 1.73 1.72 1.64 1.55 1.52 1.49 1.48 1.49 1.51 1.53 1.53 1.53 1.55 1.54 1.52 1.52 1.51 1.48 1.54 1.52 1.49 1.53 1.57 1.56 1.58 1.55 1.56 1.61 1.63 1.67 1.67 1.65 1.64 1.66 1.65 1.65 1.68 1.69
1.58 1.77 1.69 1.70 1.72 1.72 1.69 1.74 1.77 1.82 1.84 1.85 1.86 1.86 1.87 1.99 1.96 1.92 1.86 1.84 1.91 1.94 1.86 1.77 1.70 1.73 1.83 1.74 1.63 1.56 1.51 1.50 1.50 1.50 1.50 1.53 1.53 1.51 1.47 1.46 1.45 1.47 1.52 1.52 1.55 1.52 1.51 1.54 1.57 1.59 1.61 1.64 1.61 1.61 1.66 1.68 1.67 1.68 1.71 1.70 1.68 1.66 1.66
1.46 1.71 1.79 1.74 1.76 1.80 1.74 1.71 1.74 1.78 1.80 1.84 1.86 1.85 1.91 1.92 1.98 1.99 1.95 1.93 1.98 2.02 1.93 1.83 1.72 1.76 1.85 1.84 1.73 1.66 1.65 1.63 1.61 1.62 1.60 1.58 1.55 1.49 1.45 1.44 1.43 1.43 1.43 1.47 1.47 1.53 1.59 1.60 1.59 1.58 1.60 1.65 1.63 1.62 1.64 1.68 1.68 1.74 1.80 1.77 1.77 1.69 1.67
1.40 1.55 1.65 1.65 1.73 1.78 1.87 1.86 1.88 1.86 1.89 1.89 1.89 1.89 1.88 1.88 1.91 1.95 1.95 1.94 2.02 2.00 1.99 1.93 1.86 1.88 1.92 1.92 1.95 1.99 1.96 1.87 1.80 1.78 1.83 1.79 1.69 1.60 1.58 1.54 1.49 1.48 1.49 1.49 1.44 1.48 1.50 1.52 1.56 1.60 1.63 1.63 1.72 1.78 1.81 1.75 1.72 1.71 1.77 1.80 1.75 1.73 1.72
1.43 1.46 1.54 1.60 1.66 1.76 1.78 1.75 1.86 1.94 2.00 2.02 2.06 2.02 1.94 1.96 1.95 1.96 1.97 1.97 1.95 1.92 2.01 2.04 1.91 1.87 1.88 1.83 1.89 1.88 1.95 1.89 1.96 2.04 1.91 1.92 1.83 1.90 1.84 1.71 1.67 1.61 1.57 1.54 1.55 1.53 1.48 1.45 1.47 1.51 1.56 1.60 1.61 1.66 1.75 1.83 1.84 1.76 1.78 1.78 1.73 1.72 1.72
1.41 1.49 1.55 1.57 1.63 1.70 1.72 1.72 1.72 1.76 1.82 1.85 1.92 1.93 1.93 1.92 1.97 1.97 1.93 1.96 1.96 2.00 2.04 2.06 1.95 1.85 1.82 1.83 1.81 1.85 1.94 2.05 1.94 1.78 1.82 1.92 1.99 1.92 1.87 1.88 1.85 1.78 1.73 1.68 1.67 1.69 1.70 1.68 1.69 1.67 1.66 1.66 1.66 1.66 1.70 1.78 1.84 1.83 1.86 1.91 1.87 1.79 1.75
1.41 1.44 1.49 1.53 1.53 1.56 1.61 1.68 1.73 1.72 1.73 1.74 1.78 1.80 1.82 1.87 1.91 1.88 1.94 1.95 1.97 2.00 2.00 2.02 2.03 2.00 1.95 1.94 1.93 1.96 1.99 1.97 1.96 1.96 1.94 1.91 1.87 1.86 1.94 1.94 1.94 1.93 1.92 1.91 1.93 1.90 1.85 1.86 1.91 1.91 1.91 1.85 1.80 1.77 1.78 1.79 1.83 1.85 1.86 1.93 2.00 1.98 1.91
1.46 1.44 1.45 1.51 1.53 1.56 1.61 1.67 1.67 1.70 1.70 1.73 1.78 1.83 1.84 1.85 1.82 1.87 1.94 1.98 1.99 1.96 1.94 1.94 1.99 2.02 2.05 2.07 2.08 2.05 2.05 2.03 2.00 1.97 2.00 2.03 2.01 1.95 1.92 1.95 1.95 1.94 1.94 1.93 1.91 1.88 1.90 1.94 2.00 2.02 2.00 1.99 1.94 1.90 1.92 1.93 1.89 1.87 1.90 1.95 2.00 2.04 2.03
1.51 1.51 1.49 1.46 1.50 1.53 1.56 1.56 1.59 1.61 1.62 1.64 1.70 1.75 1.76 1.75 1.77 1.80 1.86 1.91 1.91 1.91 1.88 1.88 1.88 1.91 1.94 1.96 1.98 1.97 1.95 1.94 1.96 1.97 1.98 2.00 2.00 1.98 1.95 1.94 1.95 1.94 1.93 1.92 1.90 1.91 1.94 1.95 1.96 2.04 2.09 2.14 2.12 2.02 1.95 1.97 2.00 1.93 1.88 1.89 1.97 2.07 2.09
1.47 1.49 1.53 1.58 1.59 1.61 1.59 1.59 1.60 1.62 1.64 1.67 1.67 1.66 1.68 1.69 1.73 1.73 1.73 1.79 1.79 1.80 1.79 1.79 1.79 1.81 1.85 1.87 1.91 1.94 1.97 1.96 1.93 1.95 1.97 1.97 1.97 1.97 1.97 1.98 1.98 1.97 2.01 2.00 2.01 2.02 2.03 2.06 2.07 2.04 2.02 2.02 2.06 2.04 2.01 2.00 1.99 1.97 1.92 1.90 1.95 2.07 2.15
1.56 1.55 1.59 1.60 1.62 1.60 1.72 1.71 1.67 1.67 1.68 1.67 1.66 1.62 1.61 1.65 1.70 1.71 1.71 1.69 1.71 1.71 1.71 1.71 1.70 1.72 1.78 1.81 1.87 1.94 1.99 2.00 1.98 1.97 1.98 2.00 1.97 1.96 1.98 1.99 2.00 2.03 2.08 2.03 2.02 2.01 2.03 2.06 2.11 2.15 2.11 2.08 2.08 2.02 2.00 2.04 2.05 2.04 2.00 1.95 1.95 1.97 2.10
1.64 1.62 1.63 1.62 1.65 1.67 1.67 1.66 1.66 1.67 1.67 1.67 1.68 1.70 1.71 1.70 1.69 1.66 1.63 1.62 1.63 1.62 1.63 1.65 1.66 1.71 1.74 1.77 1.82 1.88 1.94 1.98 1.95 1.94 1.97 1.98 1.98 1.99 2.00 2.02 2.05 2.07 2.12 2.07 2.04 2.04 2.07 2.10 2.13 2.19 2.20 2.18 2.13 2.09 2.05 2.04 2.05 2.06 2.05 2.03 2.03 2.04 2.07
1.57 1.61 1.61 1.63 1.61 1.60 1.62 1.65 1.66 1.65 1.64 1.62 1.60 1.64 1.65 1.62 1.58 1.54 1.51 1.55 1.58 1.61 1.63 1.63 1.65 1.66 1.67 1.71 1.76 1.81 1.86 1.88 1.90 1.89 1.90 1.93 1.99 2.04 2.05 2.07 2.09 2.12 2.15 2.12 2.11 2.08 2.11 2.14 2.11 2.15 2.19 2.16 2.13 2.13 2.07 2.07 2.08 2.08 2.08 2.07 2.07 2.08 2.10
1.48 1.48 1.49 1.56 1.59 1.60 1.60 1.60 1.56 1.53 1.53 1.53 1.54 1.58 1.59 1.60 1.58 1.56 1.55 1.56 1.59 1.58 1.58 1.60 1.61 1.63 1.64 1.66 1.69 1.72 1.76 1.78 1.79 1.82 1.86 1.91 1.97 2.04 2.08 2.11 2.09 2.09 2.07 2.06 2.06 2.06 2.10 2.10 2.10 2.07 2.09 2.08 2.13 2.11 2.11 2.08 2.08 2.07 2.09 2.12 2.15 2.15 2.12
1.44 1.49 1.45 1.43 1.44 1.45 1.40 1.40 1.38 1.35 1.35 1.39 1.42 1.46 1.49 1.51 1.51 1.49 1.49 1.50 1.48 1.46 1.49 1.54 1.55 1.55 1.58 1.60 1.61 1.62 1.64 1.68 1.71 1.73 1.79 1.85 1.89 1.94 1.98 2.04 2.01 1.97 1.97 1.97 2.00 2.02 2.01 2.00 1.98 1.95 1.99 2.00 2.00 2.05 2.08 2.12 2.11 2.11 2.11 2.13 2.19 2.17 2.04
1.37 1.36 1.41 1.43 1.40 1.33 1.30 1.28 1.28 1.27 1.28 1.31 1.31 1.31 1.28 1.28 1.29 1.31 1.37 1.37 1.34 1.37 1.42 1.41 1.41 1.43 1.46 1.51 1.55 1.57 1.59 1.61 1.64 1.69 1.73 1.78 1.82 1.84 1.88 1.92 1.90 1.84 1.81 1.90 1.93 1.93 1.93 1.94 1.92 1.88 1.86 1.86 2.00 2.10 2.03 2.01 2.01 2.02 2.02 2.02 1.97 2.00 1.98
1.22 1.23 1.23 1.23 1.18 1.20 1.20 1.19 1.21 1.23 1.23 1.24 1.26 1.27 1.26 1.25 1.20 1.19 1.21 1.22 1.28 1.36 1.39 1.39 1.38 1.38 1.36 1.35 1.39 1.48 1.52 1.54 1.55 1.56 1.60 1.64 1.68 1.70 1.72 1.77 1.77 1.78 1.81 1.79 1.82 1.85 1.88 1.89 1.85 1.77 1.75 1.75 1.84 1.88 1.90 1.92 1.94 1.95 1.92 1.94 1.94 1.92 1.91
1.21 1.17 1.17 1.17 1.16 1.15 1.16 1.16 1.16 1.12 1.12 1.13 1.16 1.17 1.16 1.11 1.08 1.09 1.06 1.05 1.13 1.14 1.14 1.16 1.23 1.28 1.28 1.27 1.26 1.26 1.26 1.31 1.35 1.39 1.45 1.47 1.52 1.55 1.52 1.55 1.58 1.60 1.68 1.75 1.77 1.77 1.76 1.80 1.80 1.76 1.71 1.69 1.72 1.74 1.78 1.84 1.86 1.90 1.91 1.91 1.90 1.88 1.85
1.11 1.11 1.11 1.12 1.13 1.15 1.15 1.13 1.08 1.00 0.96 0.99 1.00 1.02 1.02 1.01 0.94 0.94 0.94 1.04 1.10 1.11 1.13 1.13 1.12 1.07 1.04 1.08 1.14 1.18 1.17 1.15 1.20 1.23 1.25 1.33 1.33 1.32 1.35 1.38 1.40 1.40 1.48 1.56 1.61 1.66 1.67 1.71 1.75 1.76 1.73 1.69 1.64 1.65 1.68 1.68 1.69 1.77 1.86 1.83 1.80 1.75 1.72
1.14 1.10 1.08 1.08 1.10 1.09 1.10 1.09 1.00 0.91 0.86 0.89 0.91 0.92 0.94 0.94 0.93 0.87 0.90 0.96 0.99 0.99 0.99 0.99 0.95 0.94 0.97 0.98 0.99 0.97 1.00 1.04 1.08 1.12 1.17 1.26 1.26 1.25 1.25 1.32 1.30 1.31 1.37 1.41 1.46 1.54 1.57 1.58 1.62 1.68 1.71 1.70 1.71 1.70 1.70 1.64 1.64 1.65 1.72 1.70 1.67 1.65 1.64
1.12 1.10 1.08 1.07 1.09 1.08 1.07 1.01 0.90 0.88 0.90 0.89 0.90 0.90 0.90 0.87 0.87 0.86 0.87 0.88 0.91 0.91 0.90 0.90 0.89 0.88 0.87 0.87 0.88 0.91 0.93 0.91 0.93 0.96 1.00 1.05 1.10 1.21 1.23 1.25 1.28 1.25 1.26 1.31 1.33 1.36 1.41 1.46 1.49 1.55 1.60 1.64 1.65 1.64 1.63 1.62 1.53 1.57 1.58 1.60 1.59 1.54 1.51
1.13 1.12 1.10 1.08 1.06 1.07 1.03 0.99 0.92 0.92 0.93 0.91 0.90 0.85 0.82 0.84 0.86 0.90 0.90 0.88 0.88 0.95 0.98 0.98 0.99 0.95 0.94 0.92 0.92 0.91 0.97 1.01 1.04 1.01 0.97 0.94 0.95 0.94 0.95 0.98 1.06 1.09 1.07 1.06 1.11 1.17 1.22 1.23 1.30 1.40 1.46 1.49 1.49 1.47 1.46 1.46 1.41 1.46 1.47 1.47 1.45 1.41 1.37
1.12 1.12 1.14 1.10 1.08 1.06 1.01 0.99 0.93 0.92 0.92 0.91 0.90 0.84 0.83 0.87 0.91 0.91 0.89 0.87 0.86 0.87 0.87 0.89 0.94 0.98 0.99 0.93 0.91 0.93 0.98 0.94 0.96 1.01 1.00 0.94 0.92 0.94 0.99 1.00 0.93 0.88 0.90 0.93 0.93 0.98 1.02 1.10 1.18 1.26 1.32 1.33 1.33 1.31 1.28 1.24 1.19 1.21 1.29 1.32 1.31 1.25 1.15
1.05 1.04 1.02 1.02 1.02 1.00 0.98 0.96 0.88 0.85 0.89 0.90 0.92 0.89 0.89 0.89 0.88 0.88 0.85 0.85 0.85 0.85 0.87 0.90 0.93 0.91 0.89 0.88 0.89 0.92 0.92 0.90 0.89 0.93 0.95 0.91 0.93 0.97 0.95 0.97 0.99 0.97 0.88 0.85 0.87 0.84 0.86 0.91 0.96 1.03 1.07 1.08 1.10 1.10 1.02 1.03 1.11 1.18 1.11 1.10 1.16 1.13 1.02
0.99 1.00 0.99 0.99 0.95 0.93 0.91 0.89 0.83 0.80 0.81 0.85 0.87 0.88 0.88 0.88 0.91 0.91 0.91 0.90 0.87 0.88 0.90 0.92 0.89 0.88 0.84 0.86 0.84 0.88 0.86 0.84 0.82 0.80 0.83 0.86 0.86 0.85 0.84 0.83 0.89 0.95 0.99 0.94 0.83 0.76 0.71 0.73 0.81 0.88 0.90 0.84 0.78 0.83 0.88 0.90 0.92 1.00 1.04 1.02 1.01 0.98 0.94
1.00 0.99 0.95 0.95 0.92 0.90 0.88 0.87 0.84 0.79 0.76 0.78 0.79 0.79 0.80 0.85 0.91 0.94 0.94 0.89 0.88 0.90 0.89 0.93 0.94 0.95 0.91 0.88 0.80 0.80 0.81 0.77 0.79 0.80 0.82 0.79 0.78 0.77 0.72 0.75 0.80 0.87 0.93 0.92 0.90 0.87 0.76 0.69 0.68 0.68 0.67 0.66 0.65 0.63 0.63 0.65 0.65 0.64 0.66 0.70 0.74 0.80 0.81

ECMWFFLT1_prec_pwat_111.txt.gz
Precipitable_Water
1.21 1.16 1.13 1.15 1.16 1.15 1.16 1.19 1.20 1.18 1.19 1.20 1.22 1.28 1.34 1.37 1.39 1.39 1.39 1.42 1.40 1.38 1.43 1.47 1.50 1.52 1.51 1.52 1.54 1.58 1.64 1.64 1.64 1.64 1.65 1.63 1.65 1.63 1.60 1.63 1.62 1.60 1.63 1.62 1.63 1.62 1.66 1.71 1.69 1.66 1.66 1.67 1.65 1.66 1.65 1.69 1.72 1.71 1.68 1.68 1.66 1.62 1.62
1.17 1.16 1.14 1.14 1.17 1.17 1.19 1.23 1.24 1.23 1.23 1.21 1.22 1.26 1.31 1.35 1.39 1.38 1.38 1.41 1.43 1.41 1.41 1.43 1.47 1.52 1.53 1.53 1.57 1.58 1.59 1.64 1.67 1.66 1.68 1.67 1.70 1.70 1.65 1.60 1.60 1.60 1.62 1.63 1.65 1.68 1.71 1.74 1.74 1.69 1.67 1.66 1.61 1.64 1.66 1.67 1.68 1.68 1.64 1.65 1.63 1.63 1.67
1.21 1.19 1.16 1.15 1.16 1.17 1.19 1.25 1.26 1.27 1.27 1.26 1.24 1.26 1.29 1.34 1.40 1.38 1.40 1.41 1.43 1.46 1.47 1.43 1.42 1.49 1.55 1.56 1.55 1.56 1.59 1.63 1.66 1.65 1.63 1.65 1.68 1.70 1.68 1.62 1.62 1.65 1.67 1.67 1.65 1.65 1.74 1.74 1.78 1.79 1.73 1.69 1.65 1.64 1.64 1.64 1.65 1.64 1.61 1.59 1.56 1.53 1.55
1.27 1.24 1.22 1.19 1.18 1.19 1.22 1.25 1.27 1.29 1.32 1.32 1.29 1.28 1.31 1.36 1.43 1.45 1.44 1.46 1.46 1.48 1.46 1.45 1.42 1.43 1.50 1.51 1.52 1.54 1.57 1.61 1.65 1.66 1.66 1.69 1.70 1.74 1.71 1.67 1.66 1.70 1.67 1.66 1.71 1.71 1.76 1.77 1.76 1.75 1.74 1.71 1.71 1.69 1.67 1.65 1.64 1.59 1.56 1.55 1.54 1.54 1.52
1.36 1.34 1.31 1.25 1.20 1.19 1.21 1.25 1.28 1.29 1.31 1.35 1.36 1.35 1.35 1.39 1.45 1.48 1.48 1.52 1.52 1.49 1.49 1.48 1.45 1.43 1.47 1.50 1.50 1.53 1.56 1.58 1.63 1.66 1.69 1.73 1.74 1.74 1.73 1.69 1.68 1.69 1.71 1.73 1.73 1.74 1.77 1.78 1.77 1.75 1.73 1.73 1.70 1.70 1.68 1.68 1.65 1.65 1.60 1.57 1.54 1.58 1.56
1.39 1.38 1.35 1.33 1.28 1.24 1.23 1.24 1.28 1.29 1.30 1.33 1.35 1.35 1.38 1.42 1.48 1.48 1.50 1.53 1.54 1.57 1.56 1.55 1.49 1.44 1.42 1.46 1.47 1.50 1.56 1.60 1.64 1.66 1.66 1.70 1.69 1.67 1.69 1.70 1.69 1.69 1.71 1.72 1.76 1.75 1.78 1.79 1.79 1.77 1.74 1.75 1.72 1.71 1.71 1.68 1.69 1.72 1.70 1.65 1.60 1.59 1.57
1.43 1.43 1.41 1.41 1.39 1.34 1.31 1.29 1.31 1.34 1.34 1.35 1.38 1.39 1.40 1.44 1.46 1.51 1.54 1.54 1.57 1.56 1.58 1.58 1.55 1.48 1.43 1.46 1.45 1.45 1.47 1.53 1.59 1.62 1.66 1.66 1.67 1.66 1.68 1.70 1.70 1.71 1.73 1.77 1.74 1.76 1.75 1.74 1.76 1.76 1.76 1.77 1.77 1.72 1.68 1.67 1.68 1.71 1.68 1.64 1.61 1.62 1.61
1.36 1.40 1.46 1.47 1.47 1.46 1.43 1.40 1.39 1.41 1.41 1.40 1.38 1.37 1.38 1.43 1.48 1.51 1.53 1.56 1.60 1.64 1.63 1.61 1.60 1.54 1.48 1.48 1.47 1.40 1.43 1.49 1.57 1.62 1.65 1.63 1.63 1.61 1.65 1.68 1.70 1.73 1.73 1.70 1.73 1.74 1.72 1.72 1.73 1.74 1.74 1.74 1.75 1.74 1.71 1.71 1.71 1.72 1.71 1.64 1.59 1.57 1.60
1.37 1.38 1.43 1.51 1.56 1.57 1.56 1.56 1.56 1.50 1.46 1.42 1.39 1.39 1.41 1.45 1.48 1.51 1.55 1.57 1.60 1.62 1.64 1.65 1.62 1.59 1.54 1.51 1.49 1.43 1.43 1.49 1.53 1.59 1.62 1.61 1.60 1.59 1.62 1.66 1.70 1.75 1.73 1.72 1.71 1.74 1.73 1.71 1.71 1.69 1.70 1.70 1.71 1.73 1.72 1.72 1.74 1.79 1.78 1.74 1.69 1.64 1.62
1.52 1.54 1.52 1.56 1.61 1.63 1.62 1.61 1.63 1.58 1.53 1.54 1.51 1.48 1.46 1.50 1.53 1.55 1.58 1.58 1.59 1.59 1.64 1.67 1.66 1.61 1.55 1.53 1.51 1.51 1.47 1.45 1.51 1.55 1.57 1.56 1.57 1.57 1.61 1.65 1.67 1.72 1.72 1.72 1.72 1.69 1.71 1.71 1.68 1.66 1.66 1.65 1.65 1.68 1.70 1.70 1.73 1.75 1.78 1.76 1.72 1.67 1.65
1.53 1.58 1.60 1.58 1.57 1.61 1.65 1.63 1.61 1.64 1.64 1.59 1.56 1.60 1.67 1.65 1.58 1.59 1.61 1.63 1.60 1.61 1.67 1.70 1.72 1.65 1.56 1.51 1.49 1.51 1.50 1.46 1.48 1.48 1.50 1.52 1.55 1.55 1.57 1.59 1.62 1.63 1.62 1.66 1.67 1.68 1.69 1.68 1.67 1.62 1.60 1.60 1.60 1.61 1.62 1.63 1.65 1.65 1.68 1.71 1.73 1.71 1.68
1.51 1.53 1.55 1.58 1.59 1.60 1.59 1.63 1.66 1.67 1.68 1.68 1.66 1.65 1.64 1.73 1.82 1.75 1.69 1.70 1.72 1.71 1.73 1.74 1.73 1.69 1.58 1.50 1.47 1.47 1.46 1.45 1.45 1.43 1.44 1.49 1.52 1.52 1.53 1.55 1.56 1.56 1.58 1.61 1.62 1.65 1.66 1.65 1.65 1.62 1.58 1.57 1.59 1.59 1.59 1.61 1.61 1.61 1.61 1.64 1.66 1.66 1.65
1.57 1.53 1.52 1.54 1.55 1.56 1.59 1.59 1.59 1.65 1.70 1.71 1.73 1.72 1.74 1.79 1.83 1.91 1.92 1.86 1.77 1.74 1.75 1.79 1.79 1.73 1.62 1.53 1.46 1.44 1.43 1.43 1.44 1.47 1.48 1.50 1.53 1.56 1.57 1.57 1.58 1.58 1.56 1.58 1.57 1.58 1.57 1.59 1.59 1.61 1.59 1.59 1.59 1.57 1.56 1.57 1.59 1.58 1.57 1.57 1.58 1.58 1.57
1.60 1.56 1.55 1.56 1.56 1.56 1.55 1.57 1.58 1.60 1.67 1.73 1.76 1.79 1.81 1.83 1.89 1.92 1.94 1.95 1.95 1.91 1.86 1.86 1.89 1.82 1.73 1.63 1.54 1.48 1.47 1.48 1.52 1.58 1.63 1.65 1.64 1.61 1.61 1.62 1.62 1.62 1.60 1.58 1.52 1.50 1.49 1.50 1.52 1.55 1.58 1.58 1.57 1.58 1.59 1.58 1.57 1.58 1.59 1.59 1.58 1.55 1.52
1.54 1.52 1.53 1.54 1.55 1.57 1.58 1.61 1.64 1.65 1.71 1.77 1.81 1.83 1.85 1.91 1.95 1.93 1.93 1.90 1.91 1.97 1.97 1.95 1.89 1.81 1.74 1.72 1.63 1.57 1.57 1.57 1.59 1.63 1.68 1.70 1.68 1.65 1.64 1.64 1.64 1.64 1.62 1.60 1.57 1.56 1.54 1.53 1.52 1.51 1.53 1.56 1.57 1.57 1.60 1.59 1.58 1.58 1.58 1.57 1.58 1.59 1.55
1.47 1.48 1.49 1.53 1.58 1.62 1.64 1.67 1.72 1.75 1.79 1.81 1.83 1.86 1.89 1.94 1.97 1.97 1.94 1.92 1.92 1.95 2.02 2.01 1.95 1.87 1.79 1.73 1.70 1.67 1.64 1.61 1.62 1.65 1.67 1.67 1.67 1.68 1.69 1.68 1.66 1.65 1.63 1.61 1.62 1.62 1.63 1.60 1.58 1.54 1.51 1.50 1.54 1.57 1.60 1.61 1.64 1.65 1.66 1.65 1.61 1.60 1.62
1.44 1.46 1.50 1.55 1.62 1.68 1.71 1.73 1.74 1.78 1.82 1.87 1.89 1.89 1.91 1.95 1.97 2.01 2.03 2.05 2.01 1.98 2.01 2.00 1.91 1.92 1.87 1.78 1.75 1.74 1.75 1.72 1.70 1.70 1.66 1.66 1.69 1.71 1.71 1.70 1.69 1.68 1.66 1.65 1.64 1.61 1.59 1.56 1.52 1.51 1.50 1.47 1.48 1.52 1.57 1.62 1.67 1.70 1.72 1.73 1.74 1.73 1.71
1.43 1.48 1.52 1.58 1.65 1.70 1.74 1.74 1.76 1.78 1.82 1.88 1.94 1.97 1.99 1.99 2.02 2.04 2.04 2.09 2.08 2.07 2.06 2.02 1.99 1.97 1.91 1.88 1.87 1.86 1.85 1.86 1.84 1.80 1.77 1.75 1.73 1.73 1.74 1.75 1.73 1.71 1.70 1.69 1.65 1.63 1.61 1.57 1.54 1.52 1.50 1.48 1.47 1.48 1.53 1.57 1.62 1.65 1.67 1.71 1.77 1.85 1.89
1.43 1.49 1.52 1.55 1.57 1.62 1.67 1.72 1.78 1.84 1.91 1.94 1.97 1.99 2.04 2.07 2.08 2.06 2.11 2.09 2.12 2.14 2.06 2.05 2.06 2.03 1.99 1.97 1.94 1.95 1.96 1.93 1.89 1.87 1.89 1.91 1.89 1.87 1.83 1.80 1.77 1.74 1.73 1.72 1.75 1.72 1.65 1.65 1.64 1.60 1.57 1.52 1.49 1.50 1.54 1.55 1.58 1.60 1.62 1.66 1.72 1.79 1.84
1.44 1.47 1.50 1.54 1.57 1.63 1.71 1.73 1.76 1.85 1.88 1.95 2.01 2.08 2.11 2.12 2.10 2.14 2.17 2.17 2.19 2.18 2.14 2.10 2.09 2.04 1.98 1.96 1.94 1.97 2.01 1.98 1.95 1.93 1.95 1.96 1.96 1.94 1.91 1.88 1.85 1.87 1.90 1.91 1.89 1.81 1.76 1.75 1.73 1.74 1.71 1.66 1.60 1.57 1.59 1.62 1.67 1.71 1.76 1.80 1.84 1.85 1.82
1.45 1.47 1.51 1.55 1.58 1.66 1.70 1.69 1.73 1.77 1.86 1.92 2.00 2.06 2.10 2.11 2.13 2.15 2.16 2.15 2.09 2.11 2.10 2.11 2.01 1.97 1.95 1.96 1.99 2.01 2.01 2.00 1.97 1.96 1.98 1.98 1.97 1.94 1.90 1.89 1.90 1.91 1.93 1.95 1.95 1.93 1.90 1.86 1.83 1.83 1.82 1.79 1.76 1.72 1.71 1.76 1.81 1.86 1.90 1.93 1.95 1.97 1.99
1.50 1.54 1.54 1.56 1.59 1.60 1.64 1.67 1.69 1.74 1.83 1.96 1.98 2.01 2.07 2.09 2.15 2.10 2.05 2.07 2.03 2.00 2.01 2.02 1.97 1.94 1.96 1.95 1.97 1.97 1.99 1.99 1.97 1.95 1.96 1.98 2.01 1.99 1.96 1.96 1.98 1.99 2.03 2.01 2.01 2.02 2.03 2.04 2.03 1.97 1.93 1.90 1.86 1.81 1.79 1.85 1.89 1.93 1.95 1.98 1.99 2.01 2.01
1.52 1.54 1.57 1.61 1.63 1.60 1.72 1.75 1.74 1.79 1.81 1.82 1.88 1.87 1.93 1.99 2.01 2.01 1.97 1.91 1.96 1.99 1.94 1.92 1.88 1.92 1.97 1.97 1.96 1.96 1.97 1.97 1.95 1.94 1.97 2.01 2.01 1.99 1.99 1.98 2.02 2.05 2.08 2.02 2.02 2.03 2.03 2.01 2.00 2.02 2.04 2.00 1.95 1.89 1.87 1.88 1.91 1.93 1.95 1.97 2.00 2.01 2.02
1.57 1.61 1.62 1.63 1.67 1.67 1.69 1.72 1.74 1.78 1.81 1.80 1.85 1.90 1.93 1.93 1.97 1.93 1.93 1.95 1.92 1.91 1.89 1.89 1.87 1.92 1.94 1.96 1.96 1.96 1.96 1.96 1.96 1.94 1.95 1.97 1.96 1.97 1.99 1.97 2.00 2.06 2.11 2.05 2.04 2.08 2.08 2.05 2.01 2.01 2.02 2.01 1.99 1.98 1.90 1.90 1.95 1.96 1.95 1.94 1.96 1.99 1.99
1.52 1.56 1.60 1.62 1.64 1.63 1.67 1.71 1.74 1.77 1.78 1.80 1.78 1.84 1.90 1.92 1.90 1.86 1.83 1.85 1.86 1.86 1.84 1.84 1.88 1.91 1.87 1.90 1.90 1.90 1.90 1.91 1.90 1.88 1.87 1.88 1.92 1.94 1.94 1.96 2.00 2.04 2.10 2.09 2.07 2.03 2.05 2.06 2.07 2.10 2.12 2.12 2.07 2.01 1.95 1.95 1.98 2.00 2.00 1.98 1.96 1.98 1.97
1.48 1.51 1.54 1.57 1.62 1.64 1.66 1.69 1.69 1.68 1.68 1.68 1.72 1.79 1.81 1.81 1.79 1.76 1.74 1.75 1.76 1.76 1.77 1.79 1.79 1.82 1.83 1.82 1.82 1.82 1.82 1.83 1.82 1.83 1.84 1.85 1.87 1.89 1.89 1.92 1.93 1.95 1.95 1.94 1.97 1.98 2.02 2.02 2.03 1.99 2.00 2.03 2.01 1.98 1.97 1.94 1.92 1.94 1.97 2.00 2.01 2.02 2.03
1.41 1.49 1.50 1.55 1.54 1.57 1.56 1.57 1.59 1.59 1.60 1.64 1.68 1.72 1.75 1.76 1.73 1.69 1.70 1.71 1.71 1.71 1.74 1.77 1.79 1.80 1.80 1.78 1.76 1.77 1.78 1.82 1.85 1.85 1.87 1.90 1.94 1.91 1.91 1.96 1.92 1.90 1.87 1.87 1.89 1.93 1.93 1.95 1.96 1.95 1.96 1.99 2.00 2.00 1.99 1.99 1.95 1.95 1.95 1.97 2.00 2.02 2.05
1.30 1.36 1.49 1.54 1.54 1.50 1.50 1.47 1.46 1.47 1.51 1.58 1.62 1.64 1.66 1.66 1.62 1.61 1.61 1.62 1.60 1.62 1.66 1.68 1.70 1.72 1.72 1.70 1.67 1.68 1.72 1.76 1.79 1.77 1.77 1.75 1.73 1.70 1.72 1.77 1.82 1.85 1.83 1.89 1.88 1.85 1.87 1.92 1.91 1.94 1.96 1.95 1.98 1.97 1.96 1.98 1.95 1.93 1.94 1.94 1.94 1.94 1.93
1.21 1.25 1.29 1.36 1.41 1.45 1.43 1.38 1.32 1.30 1.34 1.42 1.46 1.49 1.51 1.51 1.47 1.48 1.48 1.46 1.50 1.58 1.62 1.64 1.64 1.65 1.63 1.62 1.63 1.65 1.67 1.68 1.68 1.70 1.72 1.71 1.71 1.67 1.64 1.67 1.71 1.75 1.77 1.73 1.69 1.67 1.69 1.72 1.75 1.75 1.76 1.79 1.84 1.87 1.89 1.91 1.91 1.88 1.85 1.81 1.76 1.79 1.82
1.19 1.19 1.23 1.25 1.28 1.29 1.30 1.30 1.29 1.28 1.28 1.31 1.33 1.34 1.35 1.33 1.29 1.31 1.31 1.32 1.40 1.42 1.45 1.49 1.53 1.55 1.54 1.55 1.56 1.57 1.59 1.59 1.59 1.60 1.61 1.64 1.64 1.61 1.57 1.58 1.61 1.65 1.68 1.67 1.63 1.61 1.60 1.62 1.63 1.61 1.59 1.61 1.66 1.71 1.74 1.76 1.77 1.78 1.75 1.69 1.64 1.62 1.64
1.16 1.15 1.15 1.14 1.15 1.18 1.15 1.12 1.13 1.17 1.18 1.18 1.14 1.15 1.16 1.15 1.09 1.11 1.11 1.18 1.22 1.20 1.22 1.25 1.28 1.29 1.30 1.32 1.35 1.37 1.38 1.40 1.42 1.45 1.48 1.48 1.50 1.48 1.45 1.47 1.52 1.54 1.60 1.61 1.59 1.58 1.56 1.56 1.57 1.54 1.52 1.50 1.52 1.58 1.63 1.66 1.69 1.72 1.75 1.73 1.68 1.63 1.59
1.14 1.18 1.19 1.18 1.16 1.13 1.09 1.05 1.03 1.01 1.00 1.03 1.03 1.00 1.01 0.99 0.96 0.89 0.94 1.02 1.04 1.04 1.02 1.02 1.02 1.03 1.05 1.06 1.08 1.09 1.12 1.11 1.11 1.10 1.09 1.12 1.16 1.20 1.25 1.29 1.33 1.36 1.41 1.47 1.48 1.48 1.47 1.49 1.50 1.50 1.49 1.48 1.48 1.48 1.50 1.56 1.58 1.58 1.59 1.60 1.59 1.56 1.55
1.07 1.07 1.05 1.03 1.03 1.01 0.97 0.94 0.93 0.93 0.94 0.94 1.00 1.01 1.02 1.00 1.01 1.01 1.01 1.00 1.00 0.99 0.98 0.96 0.97 0.95 0.94 0.93 0.95 0.96 0.98 0.97 0.95 0.96 1.00 0.99 0.98 1.00 1.05 1.07 1.09 1.14 1.17 1.21 1.25 1.28 1.32 1.35 1.36 1.38 1.37 1.36 1.36 1.38 1.40 1.43 1.47 1.49 1.49 1.47 1.45 1.44 1.42
1.05 1.04 1.03 1.01 0.96 0.90 0.85 0.86 0.85 0.85 0.86 0.86 0.90 0.90 0.87 0.87 0.90 0.92 0.91 0.90 0.90 0.90 0.89 0.90 0.90 0.87 0.87 0.88 0.90 0.92 0.96 0.99 1.00 0.96 0.95 0.98 0.99 0.97 0.96 0.99 1.02 1.03 1.05 1.10 1.13 1.17 1.18 1.18 1.18 1.19 1.20 1.21 1.25 1.29 1.33 1.35 1.32 1.28 1.25 1.26 1.27 1.29 1.29
1.09 1.09 1.08 1.04 1.00 0.93 0.83 0.80 0.77 0.76 0.75 0.78 0.83 0.84 0.82 0.81 0.82 0.85 0.86 0.88 0.90 0.92 0.90 0.88 0.89 0.85 0.84 0.86 0.88 0.87 0.89 0.89 0.91 0.91 0.91 0.90 0.92 0.94 0.96 0.93 0.90 0.89 0.93 1.02 1.08 1.14 1.16 1.17 1.15 1.18 1.20 1.17 1.13 1.09 1.05 1.03 1.06 1.16 1.23 1.20 1.17 1.15 1.13
1.07 1.07 1.08 1.10 1.08 1.05 1.00 0.92 0.87 0.83 0.78 0.78 0.82 0.83 0.83 0.80 0.80 0.85 0.90 0.93 0.95 0.96 0.93 0.91 0.91 0.89 0.88 0.89 0.88 0.88 0.87 0.87 0.86 0.87 0.87 0.87 0.87 0.86 0.85 0.87 0.86 0.84 0.80 0.79 0.84 0.91 0.99 1.05 1.07 1.13 1.17 1.15 1.14 1.10 1.02 0.97 0.98 0.98 0.96 0.94 0.94 0.97 1.02
1.03 1.02 1.02 1.05 1.03 1.03 1.02 0.99 0.92 0.86 0.81 0.80 0.82 0.82 0.82 0.82 0.83 0.84 0.86 0.88 0.89 0.92 0.94 0.91 0.89 0.91 0.92 0.91 0.90 0.92 0.91 0.89 0.88 0.88 0.87 0.85 0.82 0.80 0.78 0.77 0.80 0.79 0.77 0.74 0.72 0.72 0.74 0.81 0.87 0.90 0.93 0.95 0.94 0.99 1.01 0.98 0.92 0.83 0.74 0.69 0.68 0.70 0.77
0.98 0.97 0.97 0.97 0.94 0.94 0.93 0.92 0.84 0.76 0.74 0.76 0.79 0.81 0.83 0.83 0.83 0.83 0.85 0.86 0.83 0.87 0.91 0.91 0.89 0.88 0.89 0.92 0.94 0.96 0.94 0.93 0.92 0.90 0.86 0.83 0.82 0.82 0.82 0.81 0.81 0.81 0.83 0.82 0.78 0.73 0.69 0.68 0.67 0.66 0.65 0.68 0.70 0.71 0.73 0.77 0.78 0.79 0.78 0.76 0.74 0.73 0.70

ECMWFFLT1_prec_pwat_117.txt.gz
Precipitable_Water
1.07 1.10 1.08 1.08 1.08 1.08 1.07 1.09 1.12 1.15 1.18 1.17 1.18 1.21 1.23 1.26 1.28 1.30 1.30 1.32 1.32 1.34 1.39 1.44 1.48 1.52 1.50 1.52 1.57 1.60 1.61 1.61 1.61 1.61 1.62 1.63 1.62 1.60 1.57 1.59 1.57 1.57 1.58 1.55 1.57 1.56 1.60 1.65 1.68 1.71 1.73 1.72 1.70 1.69 1.67 1.67 1.67 1.69 1.72 1.76 1.74 1.72 1.71
1.07 1.11 1.14 1.15 1.12 1.09 1.09 1.11 1.13 1.16 1.18 1.20 1.19 1.22 1.24 1.25 1.28 1.27 1.27 1.30 1.31 1.32 1.36 1.40 1.44 1.47 1.49 1.50 1.53 1.56 1.58 1.61 1.64 1.66 1.65 1.65 1.67 1.67 1.66 1.65 1.63 1.62 1.63 1.64 1.66 1.69 1.69 1.69 1.71 1.72 1.73 1.74 1.73 1.74 1.71 1.69 1.68 1.68 1.69 1.73 1.72 1.72 1.71
1.10 1.11 1.15 1.17 1.16 1.12 1.11 1.13 1.14 1.15 1.17 1.20 1.22 1.23 1.23 1.26 1.30 1.29 1.29 1.29 1.29 1.33 1.37 1.39 1.42 1.45 1.48 1.50 1.48 1.50 1.55 1.59 1.62 1.64 1.64 1.62 1.62 1.63 1.67 1.68 1.68 1.68 1.70 1.73 1.72 1.72 1.76 1.75 1.77 1.78 1.77 1.75 1.75 1.75 1.74 1.72 1.71 1.71 1.71 1.72 1.71 1.69 1.67
1.19 1.14 1.15 1.17 1.18 1.16 1.13 1.13 1.13 1.15 1.18 1.20 1.22 1.23 1.25 1.28 1.34 1.37 1.37 1.35 1.32 1.33 1.33 1.37 1.42 1.44 1.46 1.47 1.47 1.47 1.50 1.56 1.61 1.64 1.65 1.66 1.65 1.66 1.65 1.65 1.66 1.69 1.70 1.70 1.73 1.74 1.76 1.76 1.77 1.79 1.81 1.78 1.77 1.77 1.76 1.72 1.72 1.72 1.72 1.70 1.66 1.66 1.63
1.29 1.23 1.19 1.17 1.17 1.16 1.14 1.12 1.13 1.16 1.16 1.20 1.24 1.28 1.29 1.31 1.35 1.39 1.42 1.44 1.42 1.37 1.38 1.41 1.45 1.46 1.48 1.49 1.49 1.49 1.48 1.52 1.59 1.64 1.67 1.70 1.70 1.69 1.65 1.63 1.65 1.65 1.69 1.73 1.74 1.72 1.71 1.71 1.72 1.75 1.78 1.81 1.79 1.80 1.76 1.74 1.72 1.74 1.71 1.68 1.62 1.62 1.59
1.34 1.31 1.23 1.17 1.15 1.14 1.12 1.10 1.12 1.15 1.17 1.18 1.20 1.25 1.31 1.35 1.37 1.36 1.41 1.45 1.46 1.48 1.48 1.47 1.46 1.47 1.44 1.46 1.48 1.49 1.52 1.54 1.60 1.65 1.65 1.68 1.69 1.66 1.65 1.67 1.69 1.68 1.66 1.68 1.73 1.72 1.74 1.73 1.73 1.74 1.75 1.79 1.79 1.77 1.76 1.76 1.77 1.77 1.75 1.71 1.65 1.64 1.62
1.37 1.37 1.27 1.17 1.13 1.13 1.14 1.14 1.14 1.17 1.21 1.23 1.25 1.28 1.31 1.33 1.33 1.35 1.39 1.41 1.45 1.45 1.46 1.46 1.48 1.48 1.45 1.46 1.45 1.47 1.47 1.51 1.55 1.58 1.63 1.65 1.68 1.67 1.69 1.71 1.74 1.73 1.72 1.73 1.70 1.73 1.73 1.74 1.76 1.79 1.80 1.80 1.80 1.77 1.76 1.75 1.75 1.78 1.78 1.74 1.68 1.70 1.70
1.37 1.37 1.32 1.23 1.17 1.16 1.17 1.18 1.19 1.21 1.24 1.26 1.26 1.26 1.26 1.29 1.34 1.35 1.35 1.38 1.42 1.46 1.48 1.48 1.49 1.49 1.49 1.48 1.45 1.42 1.45 1.50 1.55 1.58 1.60 1.60 1.63 1.63 1.67 1.71 1.76 1.78 1.76 1.70 1.73 1.75 1.74 1.75 1.77 1.79 1.81 1.81 1.82 1.82 1.82 1.81 1.80 1.80 1.78 1.72 1.70 1.71 1.75
1.38 1.39 1.36 1.31 1.24 1.20 1.21 1.23 1.23 1.23 1.23 1.23 1.23 1.23 1.25 1.28 1.29 1.31 1.35 1.39 1.41 1.41 1.45 1.51 1.54 1.55 1.53 1.50 1.46 1.42 1.44 1.47 1.50 1.54 1.56 1.55 1.57 1.57 1.62 1.68 1.74 1.78 1.74 1.71 1.72 1.75 1.74 1.75 1.77 1.79 1.81 1.81 1.81 1.81 1.80 1.81 1.80 1.81 1.77 1.73 1.71 1.68 1.70
1.40 1.40 1.43 1.43 1.38 1.32 1.28 1.27 1.29 1.28 1.25 1.26 1.26 1.26 1.26 1.28 1.29 1.31 1.34 1.38 1.42 1.40 1.45 1.52 1.56 1.57 1.54 1.51 1.49 1.50 1.48 1.44 1.46 1.47 1.50 1.50 1.54 1.53 1.56 1.62 1.68 1.74 1.72 1.72 1.72 1.69 1.72 1.75 1.76 1.77 1.78 1.76 1.77 1.79 1.78 1.78 1.77 1.77 1.77 1.76 1.75 1.75 1.76
1.42 1.42 1.44 1.44 1.41 1.38 1.35 1.32 1.29 1.27 1.27 1.26 1.27 1.29 1.30 1.30 1.31 1.32 1.34 1.38 1.39 1.41 1.47 1.54 1.62 1.61 1.59 1.56 1.52 1.53 1.49 1.45 1.44 1.41 1.41 1.44 1.49 1.51 1.54 1.57 1.61 1.67 1.67 1.68 1.66 1.68 1.70 1.72 1.75 1.74 1.74 1.71 1.72 1.73 1.73 1.74 1.75 1.74 1.75 1.76 1.79 1.79 1.79
1.46 1.44 1.41 1.43 1.44 1.42 1.37 1.35 1.33 1.32 1.31 1.31 1.31 1.32 1.33 1.34 1.35 1.37 1.40 1.41 1.44 1.44 1.47 1.53 1.61 1.63 1.63 1.63 1.60 1.58 1.54 1.50 1.46 1.41 1.39 1.40 1.43 1.48 1.54 1.56 1.57 1.60 1.64 1.65 1.62 1.66 1.69 1.70 1.74 1.74 1.73 1.74 1.74 1.73 1.72 1.72 1.71 1.70 1.70 1.71 1.74 1.75 1.75
1.52 1.48 1.46 1.47 1.49 1.50 1.48 1.42 1.37 1.37 1.38 1.37 1.36 1.37 1.37 1.36 1.37 1.40 1.43 1.44 1.48 1.50 1.51 1.53 1.58 1.62 1.63 1.65 1.64 1.64 1.62 1.59 1.53 1.47 1.43 1.42 1.43 1.48 1.53 1.58 1.59 1.59 1.59 1.63 1.61 1.62 1.66 1.70 1.72 1.76 1.75 1.76 1.76 1.73 1.72 1.71 1.70 1.69 1.68 1.67 1.68 1.67 1.66
1.63 1.58 1.55 1.55 1.53 1.52 1.50 1.49 1.47 1.45 1.44 1.43 1.42 1.44 1.44 1.44 1.44 1.43 1.44 1.45 1.49 1.52 1.52 1.53 1.54 1.59 1.62 1.63 1.62 1.62 1.62 1.63 1.63 1.57 1.51 1.48 1.49 1.49 1.51 1.56 1.59 1.60 1.62 1.62 1.58 1.58 1.61 1.65 1.67 1.71 1.72 1.72 1.73 1.74 1.73 1.71 1.69 1.69 1.68 1.66 1.65 1.64 1.62
1.60 1.62 1.59 1.53 1.52 1.54 1.56 1.55 1.54 1.53 1.52 1.50 1.50 1.48 1.48 1.50 1.52 1.54 1.54 1.55 1.56 1.57 1.55 1.59 1.56 1.56 1.59 1.63 1.61 1.61 1.65 1.68 1.69 1.66 1.58 1.52 1.50 1.50 1.52 1.54 1.58 1.62 1.62 1.60 1.58 1.58 1.60 1.62 1.62 1.62 1.64 1.68 1.69 1.70 1.71 1.68 1.67 1.69 1.67 1.65 1.65 1.65 1.62
1.55 1.58 1.57 1.53 1.54 1.57 1.59 1.60 1.61 1.62 1.61 1.58 1.55 1.54 1.54 1.56 1.58 1.61 1.61 1.60 1.62 1.61 1.65 1.66 1.61 1.60 1.62 1.63 1.66 1.70 1.71 1.72 1.71 1.66 1.61 1.54 1.50 1.50 1.52 1.53 1.55 1.57 1.57 1.60 1.61 1.61 1.63 1.63 1.63 1.60 1.59 1.60 1.63 1.64 1.63 1.61 1.64 1.65 1.65 1.64 1.63 1.63 1.62
1.46 1.53 1.57 1.59 1.60 1.62 1.64 1.65 1.67 1.68 1.66 1.65 1.64 1.62 1.62 1.63 1.67 1.71 1.74 1.77 1.78 1.75 1.77 1.74 1.70 1.69 1.70 1.71 1.77 1.81 1.81 1.79 1.75 1.72 1.62 1.57 1.55 1.56 1.53 1.52 1.54 1.53 1.56 1.61 1.65 1.66 1.67 1.66 1.62 1.60 1.59 1.56 1.55 1.54 1.56 1.60 1.61 1.59 1.59 1.60 1.62 1.62 1.62
1.44 1.49 1.55 1.60 1.62 1.64 1.66 1.68 1.71 1.73 1.73 1.75 1.74 1.71 1.70 1.69 1.72 1.75 1.77 1.84 1.86 1.88 1.89 1.84 1.80 1.76 1.76 1.83 1.91 1.96 1.95 1.91 1.87 1.81 1.72 1.64 1.59 1.59 1.58 1.57 1.56 1.60 1.67 1.69 1.67 1.68 1.67 1.64 1.64 1.64 1.64 1.61 1.60 1.58 1.60 1.59 1.60 1.61 1.61 1.61 1.61 1.62 1.64
1.47 1.51 1.57 1.62 1.63 1.65 1.68 1.71 1.76 1.80 1.83 1.85 1.84 1.82 1.83 1.84 1.81 1.79 1.84 1.85 1.92 1.97 1.96 1.94 1.92 1.92 1.90 1.89 1.88 1.91 1.97 2.07 2.02 1.97 1.88 1.81 1.75 1.71 1.68 1.64 1.60 1.61 1.63 1.63 1.68 1.69 1.67 1.72 1.74 1.68 1.67 1.64 1.62 1.62 1.64 1.64 1.66 1.66 1.65 1.63 1.61 1.60 1.60
1.51 1.53 1.57 1.63 1.68 1.69 1.73 1.77 1.80 1.84 1.88 1.90 1.92 1.94 1.96 1.96 1.91 1.91 1.94 1.93 1.95 1.96 1.99 1.99 1.95 1.92 1.91 1.94 1.93 1.95 1.99 2.04 2.10 2.03 1.99 1.91 1.87 1.90 1.84 1.65 1.59 1.62 1.69 1.72 1.71 1.68 1.66 1.76 1.85 1.75 1.71 1.75 1.75 1.74 1.71 1.66 1.65 1.63 1.61 1.60 1.60 1.59 1.58
1.54 1.55 1.57 1.62 1.64 1.68 1.71 1.75 1.79 1.83 1.85 1.89 1.94 1.98 1.99 1.99 2.01 2.02 2.01 2.01 1.98 2.00 2.01 2.02 2.00 1.97 1.96 1.95 1.99 2.04 2.03 2.03 2.03 2.08 2.07 1.94 1.85 1.88 2.02 1.86 1.75 1.76 1.74 1.77 1.76 1.75 1.76 1.80 1.80 1.80 1.81 1.83 1.84 1.81 1.77 1.76 1.75 1.71 1.68 1.67 1.66 1.67 1.66
1.51 1.57 1.56 1.60 1.59 1.61 1.64 1.66 1.69 1.73 1.77 1.87 1.90 1.92 1.96 1.96 2.02 2.00 1.99 2.04 2.01 2.01 2.02 2.01 2.00 2.00 1.99 1.99 2.02 2.01 2.05 2.04 2.00 2.07 2.12 1.99 1.87 1.83 1.97 1.99 1.92 1.82 1.75 1.77 1.88 1.88 1.82 1.84 1.86 1.85 1.86 1.91 1.93 1.89 1.82 1.81 1.81 1.80 1.80 1.80 1.81 1.82 1.80
1.61 1.56 1.60 1.63 1.65 1.65 1.69 1.71 1.72 1.76 1.78 1.80 1.83 1.85 1.88 1.96 2.01 2.01 2.02 2.03 2.06 2.06 2.04 2.02 1.99 2.00 2.03 2.03 2.05 2.07 2.07 2.04 1.99 2.02 2.07 2.05 1.95 1.94 1.98 1.98 1.95 1.94 1.92 1.85 1.89 1.86 1.83 1.86 1.90 1.92 1.92 1.92 1.95 1.94 1.90 1.89 1.90 1.92 1.93 1.94 1.95 1.97 1.95
1.58 1.61 1.65 1.66 1.68 1.65 1.66 1.70 1.74 1.78 1.78 1.78 1.81 1.85 1.91 1.96 1.96 1.93 1.92 1.94 1.99 1.98 1.99 2.02 2.02 2.03 2.04 2.06 2.09 2.08 2.12 2.11 2.11 2.05 2.02 2.01 2.00 2.02 2.05 2.03 2.01 2.00 2.02 1.93 1.89 1.90 1.91 1.95 1.99 2.01 2.01 2.00 1.98 1.99 1.94 1.93 1.95 1.96 1.98 1.99 2.00 2.00 1.98
1.53 1.57 1.62 1.62 1.61 1.59 1.60 1.62 1.69 1.73 1.76 1.75 1.72 1.80 1.87 1.85 1.82 1.81 1.81 1.86 1.91 1.93 1.94 1.94 1.96 1.98 2.01 2.08 2.13 2.14 2.14 2.16 2.16 2.08 2.03 2.01 2.03 2.05 2.05 2.00 2.00 2.04 2.03 1.98 1.94 1.90 1.93 1.94 1.94 1.96 1.99 2.00 1.99 1.97 1.93 1.91 1.91 1.93 1.96 1.98 1.99 2.02 2.05
1.53 1.55 1.58 1.62 1.64 1.64 1.63 1.66 1.67 1.68 1.68 1.68 1.69 1.77 1.79 1.78 1.77 1.76 1.78 1.80 1.88 1.89 1.88 1.94 1.98 2.10 2.14 2.14 2.13 2.13 2.11 2.12 2.09 2.04 1.99 2.03 2.08 2.06 2.03 2.04 2.01 1.99 1.99 2.00 1.98 1.93 1.89 1.88 1.88 1.87 1.91 1.96 1.97 1.95 1.93 1.90 1.90 1.90 1.91 1.91 1.91 1.92 1.97
1.51 1.52 1.50 1.53 1.56 1.62 1.60 1.59 1.60 1.63 1.66 1.70 1.73 1.75 1.73 1.73 1.73 1.71 1.72 1.74 1.76 1.75 1.77 1.86 1.94 1.98 1.96 2.00 2.04 2.01 2.01 2.01 1.97 1.93 1.98 1.99 2.00 2.06 2.07 2.04 1.98 1.95 1.93 1.90 1.89 1.86 1.83 1.84 1.86 1.86 1.87 1.90 1.91 1.88 1.86 1.84 1.82 1.81 1.77 1.74 1.71 1.71 1.74
1.38 1.42 1.48 1.52 1.56 1.56 1.57 1.58 1.58 1.62 1.65 1.68 1.73 1.75 1.73 1.68 1.63 1.63 1.67 1.70 1.75 1.76 1.75 1.80 1.83 1.86 1.97 1.88 1.90 1.91 1.86 1.83 1.86 1.85 1.84 1.87 1.90 1.91 1.95 1.98 1.96 1.93 1.92 1.91 1.87 1.83 1.83 1.84 1.83 1.80 1.80 1.82 1.83 1.82 1.81 1.81 1.77 1.76 1.71 1.65 1.62 1.59 1.59
1.24 1.28 1.32 1.36 1.39 1.46 1.50 1.47 1.50 1.59 1.64 1.71 1.75 1.70 1.69 1.67 1.61 1.61 1.61 1.61 1.66 1.71 1.71 1.72 1.75 1.84 1.78 1.76 1.78 1.77 1.78 1.80 1.79 1.82 1.86 1.86 1.88 1.88 1.88 1.89 1.87 1.89 1.90 1.87 1.84 1.82 1.79 1.78 1.75 1.71 1.70 1.70 1.70 1.70 1.71 1.73 1.71 1.63 1.61 1.57 1.53 1.48 1.45
1.17 1.20 1.23 1.27 1.30 1.32 1.35 1.35 1.38 1.38 1.42 1.54 1.58 1.63 1.67 1.61 1.57 1.57 1.56 1.57 1.66 1.68 1.67 1.69 1.67 1.71 1.70 1.69 1.70 1.70 1.72 1.74 1.73 1.73 1.72 1.72 1.74 1.75 1.72 1.78 1.81 1.82 1.82 1.82 1.79 1.76 1.73 1.73 1.73 1.68 1.62 1.58 1.57 1.58 1.61 1.62 1.61 1.59 1.53 1.46 1.40 1.35 1.31
1.10 1.12 1.12 1.11 1.14 1.20 1.20 1.20 1.21 1.24 1.27 1.31 1.35 1.41 1.44 1.46 1.43 1.41 1.40 1.47 1.55 1.52 1.54 1.51 1.49 1.48 1.45 1.44 1.44 1.41 1.44 1.47 1.49 1.52 1.56 1.59 1.60 1.58 1.59 1.61 1.65 1.64 1.70 1.70 1.69 1.67 1.63 1.63 1.64 1.62 1.59 1.56 1.52 1.52 1.53 1.53 1.54 1.52 1.45 1.38 1.34 1.30 1.25
1.03 1.04 1.04 1.03 1.05 1.07 1.08 1.09 1.11 1.11 1.10 1.12 1.16 1.18 1.20 1.20 1.19 1.17 1.22 1.30 1.31 1.33 1.31 1.28 1.26 1.27 1.31 1.34 1.35 1.34 1.34 1.32 1.33 1.35 1.36 1.38 1.40 1.41 1.42 1.46 1.49 1.50 1.52 1.53 1.51 1.50 1.48 1.47 1.48 1.48 1.47 1.45 1.43 1.41 1.42 1.42 1.42 1.38 1.35 1.33 1.30 1.25 1.19
0.96 0.97 0.96 0.95 0.98 1.00 1.00 1.00 1.00 1.01 1.01 1.00 1.03 1.05 1.09 1.12 1.15 1.16 1.16 1.14 1.15 1.13 1.11 1.11 1.13 1.13 1.15 1.16 1.18 1.19 1.17 1.12 1.10 1.10 1.11 1.10 1.11 1.11 1.11 1.12 1.12 1.13 1.16 1.20 1.21 1.23 1.26 1.27 1.24 1.21 1.19 1.16 1.14 1.14 1.13 1.14 1.14 1.11 1.09 1.05 0.99 0.93 0.89
0.90 0.92 0.95 0.96 0.94 0.91 0.90 0.92 0.94 0.94 0.94 0.94 0.96 0.97 1.01 1.06 1.08 1.10 1.10 1.10 1.11 1.10 1.09 1.07 1.06 1.04 1.06 1.06 1.05 1.05 1.06 1.04 1.02 0.99 0.96 0.95 0.94 0.93 0.92 0.94 0.95 0.94 0.95 0.98 1.00 1.03 1.04 1.09 1.11 1.11 1.11 1.10 1.10 1.06 1.04 1.03 0.98 0.93 0.82 0.76 0.72 0.71 0.71
0.90 0.90 0.91 0.89 0.88 0.85 0.83 0.84 0.85 0.87 0.89 0.93 0.97 0.99 1.01 1.02 1.06 1.08 1.08 1.10 1.09 1.07 1.03 1.02 1.02 1.03 1.02 1.03 1.03 1.03 1.03 1.01 1.00 0.98 0.96 0.94 0.94 0.94 0.94 0.93 0.92 0.92 0.91 0.94 0.95 0.94 0.92 0.93 0.95 0.98 0.99 0.99 0.96 0.94 0.88 0.83 0.77 0.76 0.75 0.76 0.74 0.74 0.72
0.92 0.91 0.90 0.92 0.93 0.93 0.92 0.92 0.91 0.91 0.92 0.94 0.96 0.95 0.93 0.93 0.95 0.99 1.04 1.05 1.05 1.04 1.00 1.00 0.99 0.99 0.98 0.99 0.98 0.98 0.97 0.96 0.95 0.95 0.95 0.94 0.95 0.96 0.96 0.98 0.97 0.96 0.93 0.91 0.93 0.92 0.92 0.92 0.89 0.89 0.89 0.84 0.82 0.80 0.74 0.70 0.73 0.74 0.74 0.75 0.76 0.78 0.78
0.97 0.94 0.92 0.93 0.92 0.93 0.94 0.95 0.95 0.93 0.92 0.94 0.97 0.97 0.96 0.96 0.97 0.98 0.98 0.99 0.99 0.99 0.98 0.98 0.97 0.97 0.98 0.98 0.97 0.95 0.95 0.95 0.94 0.95 0.93 0.93 0.92 0.93 0.91 0.91 0.95 0.96 0.96 0.95 0.93 0.92 0.90 0.88 0.86 0.86 0.85 0.86 0.82 0.83 0.82 0.81 0.81 0.80 0.79 0.79 0.78 0.76 0.75
1.07 1.02 0.97 0.96 0.93 0.92 0.92 0.93 0.94 0.95 0.96 0.99 0.98 0.98 0.99 0.98 0.99 1.01 1.01 1.02 1.01 1.00 0.97 0.96 0.94 0.93 0.95 0.97 0.97 0.98 0.97 0.96 0.96 0.95 0.94 0.93 0.93 0.92 0.90 0.90 0.91 0.93 0.95 0.94 0.92 0.91 0.90 0.90 0.90 0.89 0.87 0.86 0.85 0.85 0.86 0.86 0.84 0.83 0.83 0.82 0.82 0.81 0.80

ECMWFFLT1_prec_pwat_123.txt.gz
Precipitable_Water
1.46 1.29 1.09 1.04 1.03 1.05 1.11 1.19 1.24 1.30 1.33 1.39 1.39 1.41 1.38 1.34 1.37 1.41 1.40 1.44 1.41 1.44 1.47 1.50 1.50 1.51 1.47 1.49 1.52 1.52 1.50 1.51 1.51 1.48 1.49 1.52 1.52 1.57 1.54 1.58 1.55 1.56 1.62 1.58 1.53 1.55 1.58 1.57 1.67 1.71 1.77 1.74 1.73 1.71 1.62 1.66 1.60 1.61 1.64 1.74 1.64 1.58 1.59
1.46 1.29 1.12 1.06 1.05 1.04 1.08 1.16 1.23 1.29 1.29 1.38 1.39 1.41 1.38 1.36 1.39 1.38 1.42 1.45 1.44 1.44 1.47 1.51 1.50 1.54 1.52 1.54 1.55 1.57 1.52 1.54 1.57 1.58 1.56 1.54 1.58 1.59 1.61 1.60 1.61 1.60 1.56 1.67 1.72 1.62 1.65 1.59 1.57 1.62 1.70 1.70 1.66 1.73 1.66 1.62 1.60 1.58 1.66 1.75 1.65 1.65 1.68
1.41 1.39 1.22 1.10 1.06 1.07 1.06 1.14 1.22 1.29 1.28 1.34 1.38 1.37 1.37 1.39 1.39 1.39 1.43 1.44 1.43 1.45 1.50 1.51 1.50 1.53 1.57 1.59 1.59 1.56 1.55 1.55 1.55 1.57 1.56 1.57 1.54 1.54 1.55 1.61 1.59 1.61 1.58 1.58 1.63 1.68 1.64 1.65 1.62 1.66 1.64 1.67 1.72 1.74 1.70 1.66 1.64 1.66 1.65 1.65 1.59 1.60 1.65
1.43 1.45 1.31 1.16 1.10 1.12 1.09 1.13 1.21 1.27 1.30 1.31 1.36 1.34 1.35 1.40 1.45 1.45 1.46 1.46 1.43 1.42 1.42 1.48 1.49 1.50 1.56 1.58 1.59 1.60 1.57 1.56 1.57 1.57 1.55 1.61 1.65 1.58 1.61 1.57 1.57 1.59 1.61 1.62 1.63 1.61 1.74 1.70 1.71 1.64 1.64 1.68 1.66 1.75 1.74 1.72 1.74 1.72 1.72 1.72 1.61 1.62 1.62
1.46 1.62 1.46 1.23 1.12 1.12 1.16 1.17 1.18 1.24 1.28 1.31 1.35 1.37 1.36 1.40 1.43 1.44 1.44 1.46 1.47 1.43 1.42 1.45 1.49 1.50 1.55 1.60 1.59 1.61 1.62 1.59 1.60 1.62 1.63 1.62 1.67 1.71 1.66 1.64 1.62 1.56 1.63 1.66 1.68 1.67 1.70 1.76 1.75 1.72 1.71 1.61 1.67 1.64 1.64 1.68 1.63 1.71 1.73 1.74 1.62 1.62 1.63
1.57 1.61 1.51 1.34 1.21 1.16 1.17 1.19 1.20 1.22 1.27 1.29 1.31 1.32 1.36 1.36 1.39 1.38 1.39 1.42 1.44 1.48 1.48 1.45 1.46 1.47 1.48 1.53 1.57 1.57 1.65 1.73 1.64 1.62 1.65 1.69 1.68 1.65 1.68 1.66 1.67 1.62 1.60 1.64 1.73 1.72 1.70 1.67 1.66 1.74 1.73 1.75 1.62 1.68 1.73 1.74 1.73 1.72 1.72 1.70 1.64 1.67 1.63
1.54 1.63 1.57 1.46 1.32 1.22 1.19 1.21 1.22 1.24 1.28 1.32 1.33 1.33 1.35 1.33 1.35 1.38 1.38 1.38 1.41 1.40 1.41 1.39 1.44 1.46 1.44 1.50 1.51 1.54 1.53 1.54 1.54 1.55 1.57 1.63 1.67 1.67 1.70 1.69 1.66 1.69 1.68 1.73 1.67 1.75 1.77 1.68 1.63 1.70 1.73 1.75 1.81 1.76 1.78 1.78 1.76 1.75 1.77 1.73 1.70 1.61 1.56
1.48 1.56 1.55 1.51 1.42 1.27 1.22 1.24 1.24 1.28 1.29 1.33 1.35 1.32 1.28 1.33 1.37 1.37 1.38 1.39 1.37 1.38 1.41 1.42 1.44 1.49 1.46 1.48 1.52 1.50 1.53 1.54 1.55 1.53 1.55 1.54 1.63 1.64 1.70 1.72 1.68 1.71 1.72 1.71 1.73 1.73 1.75 1.75 1.73 1.71 1.71 1.69 1.68 1.73 1.79 1.83 1.76 1.75 1.72 1.69 1.66 1.65 1.67
1.45 1.63 1.64 1.57 1.51 1.40 1.34 1.29 1.27 1.32 1.27 1.28 1.32 1.31 1.31 1.36 1.38 1.37 1.42 1.42 1.40 1.38 1.40 1.45 1.47 1.51 1.53 1.53 1.54 1.52 1.55 1.56 1.58 1.55 1.51 1.52 1.56 1.62 1.64 1.69 1.73 1.73 1.71 1.71 1.79 1.81 1.75 1.77 1.73 1.75 1.76 1.69 1.74 1.78 1.75 1.83 1.81 1.79 1.75 1.74 1.73 1.68 1.65
1.35 1.55 1.65 1.58 1.63 1.52 1.41 1.33 1.27 1.30 1.32 1.32 1.33 1.33 1.33 1.35 1.39 1.41 1.44 1.46 1.48 1.42 1.45 1.45 1.51 1.52 1.51 1.52 1.52 1.55 1.55 1.57 1.59 1.58 1.55 1.50 1.54 1.61 1.67 1.72 1.75 1.76 1.73 1.71 1.76 1.81 1.84 1.79 1.79 1.80 1.80 1.73 1.75 1.78 1.75 1.76 1.77 1.75 1.80 1.78 1.74 1.74 1.74
1.39 1.48 1.63 1.66 1.60 1.51 1.42 1.26 1.21 1.22 1.31 1.36 1.37 1.40 1.46 1.40 1.40 1.44 1.43 1.44 1.50 1.51 1.53 1.53 1.54 1.56 1.54 1.52 1.52 1.54 1.53 1.53 1.55 1.55 1.57 1.57 1.57 1.59 1.67 1.70 1.74 1.81 1.76 1.77 1.73 1.76 1.83 1.84 1.80 1.83 1.83 1.73 1.73 1.73 1.65 1.73 1.74 1.74 1.74 1.80 1.82 1.81 1.78
1.44 1.49 1.61 1.68 1.63 1.53 1.39 1.30 1.27 1.27 1.28 1.39 1.48 1.46 1.44 1.44 1.44 1.43 1.40 1.42 1.47 1.51 1.55 1.59 1.60 1.61 1.60 1.58 1.54 1.54 1.54 1.53 1.54 1.52 1.56 1.58 1.61 1.63 1.66 1.69 1.68 1.73 1.79 1.76 1.74 1.73 1.76 1.82 1.80 1.77 1.82 1.76 1.75 1.79 1.84 1.71 1.76 1.79 1.73 1.73 1.87 1.82 1.82
1.51 1.52 1.58 1.68 1.67 1.60 1.49 1.40 1.35 1.41 1.44 1.52 1.56 1.51 1.51 1.38 1.40 1.47 1.47 1.45 1.47 1.50 1.52 1.53 1.55 1.59 1.60 1.63 1.58 1.56 1.54 1.57 1.56 1.57 1.55 1.56 1.60 1.63 1.65 1.68 1.70 1.67 1.71 1.75 1.72 1.72 1.68 1.73 1.75 1.80 1.76 1.76 1.71 1.72 1.76 1.78 1.77 1.78 1.87 1.80 1.66 1.79 1.84
1.51 1.54 1.61 1.67 1.63 1.57 1.55 1.48 1.45 1.48 1.51 1.54 1.58 1.57 1.60 1.55 1.47 1.54 1.52 1.46 1.51 1.55 1.56 1.60 1.58 1.58 1.58 1.60 1.59 1.56 1.60 1.60 1.63 1.65 1.64 1.65 1.64 1.62 1.58 1.61 1.67 1.68 1.66 1.72 1.71 1.69 1.69 1.63 1.69 1.75 1.75 1.75 1.76 1.75 1.80 1.82 1.79 1.78 1.78 1.91 1.84 1.67 1.66
1.34 1.47 1.59 1.63 1.66 1.63 1.58 1.64 1.52 1.52 1.54 1.57 1.62 1.61 1.59 1.59 1.59 1.59 1.56 1.56 1.58 1.60 1.59 1.62 1.59 1.59 1.61 1.62 1.62 1.59 1.64 1.68 1.70 1.74 1.74 1.75 1.77 1.72 1.69 1.60 1.61 1.69 1.69 1.69 1.71 1.74 1.72 1.68 1.65 1.69 1.67 1.73 1.73 1.78 1.82 1.78 1.86 1.87 1.82 1.77 1.77 1.78 1.75
1.33 1.41 1.51 1.59 1.70 1.75 1.66 1.65 1.63 1.58 1.56 1.60 1.62 1.61 1.59 1.59 1.58 1.55 1.53 1.55 1.60 1.59 1.64 1.67 1.63 1.63 1.64 1.66 1.68 1.64 1.69 1.75 1.70 1.74 1.82 1.86 1.85 1.80 1.77 1.75 1.65 1.61 1.70 1.73 1.71 1.75 1.77 1.73 1.68 1.64 1.66 1.70 1.72 1.71 1.75 1.91 1.84 1.83 1.83 1.87 1.94 1.84 1.80
1.38 1.47 1.55 1.61 1.68 1.71 1.68 1.67 1.68 1.63 1.60 1.64 1.64 1.61 1.61 1.61 1.62 1.62 1.59 1.60 1.61 1.62 1.67 1.66 1.63 1.62 1.64 1.65 1.70 1.73 1.78 1.78 1.76 1.78 1.80 1.72 1.68 1.65 1.66 1.61 1.69 1.71 1.69 1.73 1.72 1.69 1.72 1.70 1.68 1.64 1.66 1.69 1.71 1.76 1.87 1.87 1.81 1.77 1.72 1.75 1.80 1.72 1.64
1.31 1.43 1.60 1.65 1.68 1.70 1.68 1.67 1.72 1.73 1.66 1.63 1.64 1.62 1.58 1.58 1.60 1.60 1.60 1.63 1.63 1.67 1.71 1.67 1.64 1.63 1.67 1.73 1.78 1.79 1.82 1.79 1.81 1.80 1.75 1.74 1.70 1.70 1.69 1.70 1.68 1.67 1.74 1.72 1.74 1.79 1.71 1.69 1.65 1.68 1.72 1.72 1.72 1.85 1.99 1.95 1.92 1.87 1.82 1.75 1.67 1.61 1.55
1.18 1.25 1.47 1.61 1.70 1.75 1.74 1.74 1.76 1.83 1.85 1.81 1.75 1.69 1.68 1.71 1.69 1.67 1.71 1.69 1.74 1.77 1.73 1.70 1.68 1.68 1.70 1.77 1.81 1.87 1.84 1.78 1.77 1.76 1.77 1.78 1.78 1.78 1.76 1.71 1.66 1.67 1.69 1.72 1.81 1.79 1.68 1.68 1.68 1.71 1.74 1.76 1.78 1.84 1.85 1.93 2.05 1.92 1.77 1.72 1.68 1.60 1.55
1.20 1.24 1.34 1.50 1.70 1.73 1.75 1.83 1.87 1.97 1.96 1.92 1.95 1.90 1.85 1.83 1.82 1.85 1.87 1.85 1.85 1.80 1.77 1.75 1.75 1.74 1.73 1.76 1.77 1.92 1.91 1.84 1.78 1.76 1.78 1.82 1.80 1.79 1.77 1.74 1.71 1.71 1.72 1.76 1.76 1.81 1.88 1.74 1.68 1.70 1.65 1.63 1.61 1.58 1.58 1.62 1.84 1.87 1.75 1.67 1.60 1.56 1.56
1.27 1.23 1.19 1.30 1.44 1.65 1.74 1.75 1.84 1.90 1.89 1.90 1.94 1.95 1.91 1.87 1.92 1.93 1.91 1.89 1.85 1.83 1.80 1.80 1.78 1.77 1.80 1.81 1.80 1.87 1.92 1.88 1.79 1.77 1.83 1.85 1.85 1.82 1.80 1.86 1.91 1.83 1.80 1.80 1.81 1.84 1.89 1.86 1.79 1.71 1.65 1.67 1.68 1.61 1.50 1.62 1.77 1.76 1.68 1.64 1.60 1.60 1.59
1.28 1.35 1.31 1.34 1.46 1.52 1.63 1.78 1.80 1.77 1.83 1.96 1.98 1.94 1.91 1.89 1.93 1.96 1.96 1.99 1.93 1.89 1.85 1.83 1.82 1.82 1.84 1.82 1.84 1.84 1.93 1.91 1.86 1.87 1.90 1.89 1.90 1.87 1.82 1.85 1.97 1.97 1.95 1.97 1.94 1.99 2.01 1.92 1.89 1.78 1.76 1.82 1.80 1.62 1.59 1.71 1.69 1.64 1.62 1.62 1.61 1.63 1.67
1.34 1.36 1.42 1.42 1.52 1.54 1.65 1.79 1.87 1.89 1.86 1.91 1.95 1.92 1.90 1.94 1.96 1.96 1.95 1.91 1.90 1.89 1.91 1.88 1.85 1.83 1.83 1.86 1.91 1.93 1.96 1.98 1.96 1.98 1.99 1.98 1.96 1.95 1.97 1.98 1.93 2.02 2.09 2.05 2.11 2.00 1.91 1.99 1.99 1.94 1.88 1.87 1.88 1.74 1.62 1.68 1.70 1.66 1.64 1.64 1.63 1.67 1.74
1.39 1.45 1.48 1.49 1.54 1.62 1.71 1.83 1.88 1.84 1.81 1.80 1.82 1.86 1.89 1.92 1.93 1.92 1.89 1.89 1.88 1.85 1.83 1.82 1.81 1.84 1.87 1.91 1.95 1.99 2.04 2.05 2.04 1.96 2.00 2.01 1.96 1.95 2.00 2.04 2.05 2.04 2.04 2.06 2.07 2.03 2.10 2.06 1.98 1.99 1.98 1.89 1.88 1.87 1.74 1.70 1.77 1.75 1.66 1.63 1.66 1.69 1.75
1.38 1.45 1.50 1.51 1.54 1.56 1.60 1.71 1.80 1.83 1.85 1.86 1.84 1.89 1.91 1.90 1.89 1.87 1.87 1.90 1.88 1.86 1.83 1.82 1.85 1.87 1.91 1.96 2.03 2.05 2.05 2.05 2.06 2.03 1.99 1.96 1.99 2.01 2.01 2.01 2.01 2.07 2.11 2.08 2.09 2.11 2.13 2.12 2.03 2.01 2.03 2.03 1.96 1.89 1.79 1.73 1.75 1.74 1.68 1.57 1.58 1.66 1.68
1.36 1.43 1.50 1.54 1.58 1.66 1.68 1.67 1.72 1.75 1.75 1.80 1.85 1.91 1.89 1.89 1.87 1.84 1.83 1.82 1.83 1.80 1.78 1.81 1.85 1.92 1.96 2.01 2.06 2.10 2.13 2.14 2.12 2.10 2.07 2.05 2.05 2.07 2.07 2.10 2.08 2.07 2.07 2.07 2.09 2.11 2.11 2.12 2.04 2.00 2.01 2.07 2.00 1.93 1.88 1.84 1.77 1.72 1.63 1.55 1.45 1.46 1.52
1.38 1.46 1.49 1.52 1.54 1.64 1.67 1.72 1.70 1.66 1.71 1.80 1.87 1.89 1.89 1.87 1.84 1.81 1.82 1.82 1.80 1.77 1.81 1.84 1.87 1.88 1.92 1.96 2.01 2.03 2.06 2.09 2.07 2.04 2.08 2.10 2.13 2.08 2.07 2.06 2.07 2.07 2.06 2.05 2.07 2.08 2.08 2.05 2.04 2.03 2.04 2.06 2.04 1.99 1.96 1.90 1.78 1.68 1.61 1.50 1.43 1.40 1.42
1.37 1.45 1.54 1.58 1.59 1.61 1.63 1.68 1.71 1.74 1.75 1.80 1.82 1.83 1.81 1.77 1.73 1.78 1.79 1.78 1.74 1.77 1.82 1.84 1.87 1.91 1.95 1.96 1.97 1.99 2.05 2.05 2.03 2.06 2.13 2.16 2.14 2.11 2.12 2.17 2.15 2.10 2.08 2.08 2.09 2.05 2.02 2.01 2.01 2.01 1.99 1.99 1.96 1.87 1.78 1.74 1.73 1.69 1.59 1.52 1.46 1.44 1.41
1.32 1.37 1.44 1.47 1.51 1.59 1.60 1.59 1.60 1.64 1.67 1.73 1.78 1.78 1.76 1.75 1.71 1.71 1.70 1.68 1.71 1.79 1.80 1.81 1.84 1.86 1.90 1.91 1.91 1.88 1.86 1.89 1.86 1.84 1.90 1.90 1.91 1.93 1.88 1.93 1.97 2.02 1.97 1.91 1.89 1.95 1.92 1.88 1.87 1.83 1.78 1.78 1.79 1.78 1.77 1.74 1.71 1.69 1.69 1.65 1.59 1.55 1.53
1.32 1.34 1.39 1.46 1.51 1.53 1.56 1.54 1.55 1.58 1.64 1.66 1.70 1.72 1.71 1.69 1.65 1.64 1.62 1.63 1.73 1.74 1.76 1.77 1.78 1.80 1.83 1.83 1.81 1.80 1.80 1.82 1.84 1.87 1.86 1.85 1.86 1.85 1.83 1.82 1.81 1.81 1.79 1.77 1.75 1.74 1.73 1.74 1.72 1.69 1.68 1.68 1.74 1.77 1.78 1.80 1.80 1.77 1.75 1.69 1.57 1.48 1.41
1.22 1.26 1.35 1.40 1.40 1.47 1.50 1.49 1.49 1.51 1.56 1.62 1.62 1.64 1.61 1.62 1.60 1.56 1.53 1.58 1.65 1.64 1.65 1.66 1.67 1.67 1.66 1.68 1.70 1.71 1.73 1.77 1.79 1.81 1.81 1.82 1.81 1.77 1.77 1.77 1.76 1.72 1.73 1.71 1.72 1.70 1.64 1.65 1.70 1.70 1.73 1.74 1.71 1.71 1.68 1.64 1.60 1.64 1.61 1.43 1.27 1.17 1.12
1.18 1.22 1.28 1.32 1.36 1.40 1.43 1.46 1.47 1.47 1.45 1.49 1.53 1.52 1.53 1.54 1.53 1.49 1.51 1.58 1.62 1.63 1.62 1.61 1.58 1.55 1.54 1.55 1.54 1.56 1.59 1.60 1.67 1.72 1.73 1.74 1.77 1.78 1.77 1.71 1.68 1.64 1.62 1.64 1.63 1.62 1.59 1.59 1.63 1.63 1.60 1.61 1.58 1.54 1.38 1.38 1.42 1.49 1.39 1.26 1.14 1.09 1.05
1.16 1.15 1.15 1.18 1.27 1.32 1.33 1.36 1.37 1.37 1.38 1.36 1.36 1.38 1.40 1.40 1.40 1.40 1.41 1.42 1.47 1.50 1.49 1.44 1.43 1.40 1.41 1.43 1.42 1.42 1.41 1.35 1.34 1.37 1.43 1.45 1.46 1.48 1.53 1.61 1.65 1.64 1.64 1.65 1.59 1.52 1.50 1.48 1.43 1.38 1.34 1.32 1.27 1.22 1.28 1.38 1.32 1.21 1.11 1.01 0.97 0.98 0.96
1.16 1.17 1.20 1.23 1.23 1.27 1.28 1.27 1.27 1.29 1.27 1.28 1.33 1.34 1.32 1.30 1.27 1.26 1.25 1.27 1.24 1.22 1.19 1.17 1.16 1.15 1.15 1.15 1.16 1.15 1.14 1.13 1.14 1.13 1.13 1.14 1.14 1.10 1.09 1.13 1.18 1.19 1.21 1.23 1.25 1.27 1.27 1.22 1.19 1.20 1.18 1.18 1.15 1.12 1.15 1.09 1.07 1.03 0.95 0.92 0.95 0.94 0.95
1.18 1.23 1.21 1.19 1.23 1.24 1.29 1.35 1.29 1.29 1.27 1.26 1.25 1.26 1.23 1.22 1.23 1.25 1.27 1.28 1.25 1.20 1.13 1.10 1.09 1.08 1.06 1.06 1.05 1.04 1.04 1.01 1.01 1.00 0.99 0.98 1.00 0.99 0.98 0.98 0.99 0.96 0.99 1.08 1.11 1.09 1.04 1.06 1.07 1.05 1.05 0.98 0.88 0.92 0.92 0.97 0.94 0.91 0.96 0.97 0.95 0.93 0.92
1.16 1.19 1.18 1.13 1.10 1.09 1.13 1.18 1.16 1.15 1.16 1.17 1.21 1.21 1.21 1.21 1.23 1.25 1.25 1.23 1.23 1.20 1.14 1.12 1.09 1.06 1.04 1.04 1.04 1.06 1.07 1.06 1.03 1.00 0.97 0.97 0.96 0.95 0.96 0.98 0.97 0.96 0.95 0.90 0.94 0.95 0.97 0.96 0.91 0.94 1.01 1.00 0.92 0.92 0.89 0.86 0.91 0.94 0.95 0.93 0.92 0.91 0.90
1.14 1.12 1.05 1.03 1.04 1.05 1.05 1.06 1.08 1.09 1.11 1.14 1.18 1.20 1.21 1.21 1.22 1.24 1.26 1.25 1.20 1.14 1.11 1.10 1.09 1.07 1.06 1.04 1.02 1.01 0.99 1.02 1.04 1.07 1.05 1.01 0.97 0.94 0.92 0.90 0.93 0.93 0.92 0.92 0.91 0.89 0.87 0.87 0.84 0.84 0.87 0.91 0.86 0.84 0.84 0.84 0.83 0.84 0.82 0.82 0.82 0.80 0.79
1.24 1.18 1.12 1.05 1.02 1.03 1.04 1.03 1.03 1.03 1.04 1.07 1.07 1.08 1.10 1.11 1.16 1.19 1.23 1.26 1.26 1.25 1.20 1.16 1.11 1.07 1.06 1.07 1.07 1.07 1.02 0.97 0.95 0.97 1.01 1.04 1.05 1.00 0.93 0.86 0.82 0.82 0.83 0.85 0.84 0.83 0.83 0.82 0.81 0.81 0.79 0.78 0.79 0.80 0.79 0.74 0.74 0.72 0.70 0.70 0.71 0.72 0.74